Wetterdaten: Samstag, 03.04.2010
Datum Zeit Temp. Innen Temp. Aussen UV X Diff Temp. Feuchte Inne Feuchte Auss Sonnenschein Luftdruck Regen ab 0,1 Wind Sonnenschein Windben
03.04.2010 00:00 15,1 C 8,6 C 0,0 UV-I 0,0 C 47 % 74 % 0 % 1008,2 hPa 0,0 l/m 13,3 km/h (3 Bft) 0 min 14,2 km/h (3 Bft)
03.04.2010 00:02 15,1 C 8,6 C 0,0 UV-I 0,0 C 47 % 75 % 0 % 1008,2 hPa 0,0 l/m 13,7 km/h (3 Bft) 0 min 12,0 km/h (2 Bft)
03.04.2010 00:04 15,1 C 8,6 C 0,0 UV-I 0,0 C 47 % 75 % 0 % 1008,2 hPa 0,0 l/m 13,7 km/h (3 Bft) 0 min 12,0 km/h (2 Bft)
03.04.2010 00:06 15,1 C 8,7 C 0,0 UV-I 0,0 C 47 % 75 % 0 % 1008,2 hPa 0,0 l/m 13,7 km/h (3 Bft) 0 min 9,4 km/h (2 Bft)
03.04.2010 00:08 15,1 C 8,7 C 0,0 UV-I 0,0 C 47 % 75 % 0 % 1008,2 hPa 0,0 l/m 13,3 km/h (3 Bft) 0 min 9,4 km/h (2 Bft)
03.04.2010 00:10 15,2 C 8,7 C 0,0 UV-I 0,0 C 47 % 75 % 0 % 1008,2 hPa 0,0 l/m 13,3 km/h (3 Bft) 0 min 14,9 km/h (3 Bft)
03.04.2010 00:12 15,1 C 8,6 C 0,0 UV-I 0,0 C 47 % 75 % 0 % 1007,9 hPa 0,0 l/m 13,7 km/h (3 Bft) 0 min 16,1 km/h (3 Bft)
03.04.2010 00:14 15,1 C 8,5 C 0,0 UV-I 0,0 C 47 % 75 % 0 % 1007,9 hPa 0,0 l/m 14,5 km/h (3 Bft) 0 min 9,1 km/h (2 Bft)
03.04.2010 00:16 15,1 C 8,5 C 0,0 UV-I 0,0 C 47 % 75 % 0 % 1007,9 hPa 0,0 l/m 15,3 km/h (3 Bft) 0 min 16,8 km/h (3 Bft)
03.04.2010 00:18 15,2 C 8,5 C 0,0 UV-I 0,0 C 47 % 75 % 0 % 1007,9 hPa 0,0 l/m 14,9 km/h (3 Bft) 0 min 9,1 km/h (2 Bft)
03.04.2010 00:20 15,2 C 8,4 C 0,0 UV-I 0,0 C 47 % 75 % 0 % 1007,9 hPa 0,0 l/m 15,7 km/h (3 Bft) 0 min 19,5 km/h (3 Bft)
03.04.2010 00:22 15,2 C 8,4 C 0,0 UV-I 0,0 C 47 % 75 % 0 % 1007,9 hPa 0,0 l/m 16,9 km/h (3 Bft) 0 min 20,0 km/h (4 Bft)
03.04.2010 00:24 15,2 C 8,5 C 0,0 UV-I 0,0 C 47 % 75 % 0 % 1007,9 hPa 0,0 l/m 16,5 km/h (3 Bft) 0 min 13,7 km/h (3 Bft)
03.04.2010 00:26 15,2 C 8,5 C 0,0 UV-I 0,0 C 47 % 75 % 0 % 1007,9 hPa 0,0 l/m 15,3 km/h (3 Bft) 0 min 11,1 km/h (2 Bft)
03.04.2010 00:28 15,2 C 8,4 C 0,0 UV-I 0,0 C 47 % 75 % 0 % 1007,9 hPa 0,0 l/m 14,9 km/h (3 Bft) 0 min 4,8 km/h (1 Bft)
03.04.2010 00:30 15,2 C 8,3 C 0,0 UV-I 0,0 C 47 % 75 % 0 % 1007,9 hPa 0,0 l/m 15,7 km/h (3 Bft) 0 min 20,0 km/h (4 Bft)
03.04.2010 00:32 15,2 C 8,3 C 0,0 UV-I 0,0 C 47 % 75 % 0 % 1007,9 hPa 0,0 l/m 14,9 km/h (3 Bft) 0 min 16,6 km/h (3 Bft)
03.04.2010 00:34 15,2 C 8,3 C 0,0 UV-I 0,0 C 47 % 75 % 0 % 1007,9 hPa 0,0 l/m 14,1 km/h (3 Bft) 0 min 6,7 km/h (2 Bft)
03.04.2010 00:36 15,2 C 8,2 C 0,0 UV-I 0,0 C 47 % 75 % 0 % 1007,9 hPa 0,0 l/m 14,5 km/h (3 Bft) 0 min 15,4 km/h (3 Bft)
03.04.2010 00:38 15,2 C 8,2 C 0,0 UV-I 0,0 C 47 % 75 % 0 % 1007,9 hPa 0,0 l/m 16,5 km/h (3 Bft) 0 min 22,6 km/h (4 Bft)
03.04.2010 00:40 15,2 C 8,2 C 0,0 UV-I 0,0 C 47 % 75 % 0 % 1007,9 hPa 0,0 l/m 19,3 km/h (3 Bft) 0 min 24,3 km/h (4 Bft)
03.04.2010 00:42 15,2 C 8,2 C 0,0 UV-I 0,0 C 47 % 75 % 0 % 1007,9 hPa 0,0 l/m 18,9 km/h (3 Bft) 0 min 7,7 km/h (2 Bft)
03.04.2010 00:44 15,2 C 8,3 C 0,0 UV-I 0,0 C 47 % 75 % 0 % 1007,9 hPa 0,0 l/m 18,9 km/h (3 Bft) 0 min 9,6 km/h (2 Bft)
03.04.2010 00:46 15,2 C 8,2 C 0,0 UV-I 0,0 C 47 % 75 % 0 % 1007,9 hPa 0,0 l/m 20,1 km/h (4 Bft) 0 min 17,1 km/h (3 Bft)
03.04.2010 00:48 15,2 C 8,2 C 0,0 UV-I 0,0 C 47 % 75 % 0 % 1007,9 hPa 0,0 l/m 20,5 km/h (4 Bft) 0 min 12,5 km/h (3 Bft)
03.04.2010 00:50 15,2 C 8,1 C 0,0 UV-I 0,0 C 47 % 75 % 0 % 1007,9 hPa 0,0 l/m 20,1 km/h (4 Bft) 0 min 24,8 km/h (4 Bft)
03.04.2010 00:52 15,2 C 8,1 C 0,0 UV-I 0,0 C 47 % 75 % 0 % 1007,6 hPa 0,0 l/m 18,1 km/h (3 Bft) 0 min 8,9 km/h (2 Bft)
03.04.2010 00:54 15,2 C 8,1 C 0,0 UV-I 0,0 C 47 % 76 % 0 % 1007,6 hPa 0,0 l/m 18,5 km/h (3 Bft) 0 min 18,8 km/h (3 Bft)
03.04.2010 00:56 15,2 C 8,0 C 0,0 UV-I 0,0 C 47 % 76 % 0 % 1007,6 hPa 0,0 l/m 18,5 km/h (3 Bft) 0 min 9,9 km/h (2 Bft)
03.04.2010 00:58 15,2 C 8,0 C 0,0 UV-I 0,0 C 47 % 76 % 0 % 1007,6 hPa 0,0 l/m 17,3 km/h (3 Bft) 0 min 12,5 km/h (3 Bft)
03.04.2010 01:00 15,2 C 8,1 C 0,0 UV-I 0,0 C 47 % 76 % 0 % 1007,6 hPa 0,0 l/m 18,5 km/h (3 Bft) 0 min 11,1 km/h (2 Bft)
03.04.2010 01:02 15,2 C 8,0 C 0,0 UV-I 0,0 C 47 % 76 % 0 % 1007,6 hPa 0,0 l/m 16,5 km/h (3 Bft) 0 min 11,3 km/h (2 Bft)
03.04.2010 01:04 15,2 C 8,0 C 0,0 UV-I 0,0 C 47 % 76 % 0 % 1007,6 hPa 0,0 l/m 18,1 km/h (3 Bft) 0 min 11,3 km/h (2 Bft)
03.04.2010 01:06 15,2 C 7,9 C 0,0 UV-I 0,0 C 47 % 76 % 0 % 1007,6 hPa 0,0 l/m 16,1 km/h (3 Bft) 0 min 8,7 km/h (2 Bft)
03.04.2010 01:08 15,2 C 7,9 C 0,0 UV-I 0,0 C 47 % 76 % 0 % 1007,6 hPa 0,0 l/m 15,7 km/h (3 Bft) 0 min 12,8 km/h (3 Bft)
03.04.2010 01:10 15,2 C 7,8 C 0,0 UV-I 0,0 C 47 % 76 % 0 % 1007,6 hPa 0,0 l/m 13,7 km/h (3 Bft) 0 min 9,1 km/h (2 Bft)
03.04.2010 01:12 15,2 C 7,9 C 0,0 UV-I 0,0 C 47 % 76 % 0 % 1007,8 hPa 0,0 l/m 13,3 km/h (3 Bft) 0 min 12,5 km/h (3 Bft)
03.04.2010 01:14 15,2 C 7,9 C 0,0 UV-I 0,0 C 47 % 77 % 0 % 1007,8 hPa 0,0 l/m 12,4 km/h (3 Bft) 0 min 12,8 km/h (3 Bft)
03.04.2010 01:16 15,1 C 7,8 C 0,0 UV-I 0,0 C 47 % 77 % 0 % 1007,8 hPa 0,0 l/m 12,8 km/h (3 Bft) 0 min 12,5 km/h (3 Bft)
03.04.2010 01:18 15,1 C 7,7 C 0,0 UV-I 0,0 C 47 % 77 % 0 % 1007,8 hPa 0,0 l/m 14,9 km/h (3 Bft) 0 min 14,0 km/h (3 Bft)
03.04.2010 01:20 15,1 C 7,7 C 0,0 UV-I 0,0 C 47 % 77 % 0 % 1007,8 hPa 0,0 l/m 15,3 km/h (3 Bft) 0 min 25,3 km/h (4 Bft)
03.04.2010 01:22 15,1 C 7,7 C 0,0 UV-I 0,0 C 47 % 77 % 0 % 1007,8 hPa 0,0 l/m 16,5 km/h (3 Bft) 0 min 12,8 km/h (3 Bft)
03.04.2010 01:24 15,1 C 7,7 C 0,0 UV-I 0,0 C 47 % 77 % 0 % 1007,8 hPa 0,0 l/m 16,1 km/h (3 Bft) 0 min 12,0 km/h (2 Bft)
03.04.2010 01:26 15,1 C 7,6 C 0,0 UV-I 0,0 C 47 % 77 % 0 % 1007,8 hPa 0,0 l/m 15,3 km/h (3 Bft) 0 min 5,5 km/h (1 Bft)
03.04.2010 01:28 15,1 C 7,6 C 0,0 UV-I 0,0 C 47 % 77 % 0 % 1007,8 hPa 0,0 l/m 14,5 km/h (3 Bft) 0 min 12,3 km/h (3 Bft)
03.04.2010 01:30 15,1 C 7,7 C 0,0 UV-I 0,0 C 47 % 77 % 0 % 1007,8 hPa 0,0 l/m 14,1 km/h (3 Bft) 0 min 9,1 km/h (2 Bft)
03.04.2010 01:32 15,1 C 7,7 C 0,0 UV-I 0,0 C 47 % 78 % 0 % 1007,6 hPa 0,0 l/m 14,1 km/h (3 Bft) 0 min 12,3 km/h (3 Bft)
03.04.2010 01:34 15,1 C 7,6 C 0,0 UV-I 0,0 C 47 % 78 % 0 % 1007,6 hPa 0,0 l/m 14,1 km/h (3 Bft) 0 min 9,4 km/h (2 Bft)
03.04.2010 01:36 15,1 C 7,6 C 0,0 UV-I 0,0 C 47 % 78 % 0 % 1007,6 hPa 0,0 l/m 14,5 km/h (3 Bft) 0 min 16,1 km/h (3 Bft)
03.04.2010 01:38 15,1 C 7,6 C 0,0 UV-I 0,0 C 47 % 78 % 0 % 1007,6 hPa 0,0 l/m 15,7 km/h (3 Bft) 0 min 13,7 km/h (3 Bft)
03.04.2010 01:40 15,1 C 7,6 C 0,0 UV-I 0,0 C 47 % 78 % 0 % 1007,6 hPa 0,0 l/m 16,9 km/h (3 Bft) 0 min 14,4 km/h (3 Bft)
03.04.2010 01:42 14,9 C 7,6 C 0,0 UV-I 0,0 C 47 % 78 % 0 % 1007,6 hPa 0,0 l/m 18,1 km/h (3 Bft) 0 min 25,3 km/h (4 Bft)
03.04.2010 01:44 14,9 C 7,5 C 0,0 UV-I 0,0 C 47 % 78 % 0 % 1007,6 hPa 0,0 l/m 18,1 km/h (3 Bft) 0 min 10,6 km/h (2 Bft)
03.04.2010 01:46 14,9 C 7,5 C 0,0 UV-I 0,0 C 47 % 78 % 0 % 1007,6 hPa 0,0 l/m 18,1 km/h (3 Bft) 0 min 6,0 km/h (2 Bft)
03.04.2010 01:48 14,9 C 7,5 C 0,0 UV-I 0,0 C 47 % 78 % 0 % 1007,6 hPa 0,0 l/m 17,7 km/h (3 Bft) 0 min 12,0 km/h (2 Bft)
03.04.2010 01:50 14,9 C 7,5 C 0,0 UV-I 0,0 C 47 % 78 % 0 % 1007,6 hPa 0,0 l/m 16,9 km/h (3 Bft) 0 min 9,4 km/h (2 Bft)
03.04.2010 01:52 14,9 C 7,5 C 0,0 UV-I 0,0 C 47 % 79 % 0 % 1007,5 hPa 0,0 l/m 16,1 km/h (3 Bft) 0 min 11,1 km/h (2 Bft)
03.04.2010 01:54 14,9 C 7,5 C 0,0 UV-I 0,0 C 47 % 79 % 0 % 1007,5 hPa 0,0 l/m 14,9 km/h (3 Bft) 0 min 11,8 km/h (2 Bft)
03.04.2010 01:56 14,9 C 7,5 C 0,0 UV-I 0,0 C 47 % 79 % 0 % 1007,5 hPa 0,0 l/m 14,1 km/h (3 Bft) 0 min 7,9 km/h (2 Bft)
03.04.2010 01:58 15,0 C 7,5 C 0,0 UV-I 0,0 C 47 % 79 % 0 % 1007,5 hPa 0,0 l/m 14,5 km/h (3 Bft) 0 min 10,3 km/h (2 Bft)
03.04.2010 02:00 14,9 C 7,5 C 0,0 UV-I 0,0 C 47 % 79 % 0 % 1007,5 hPa 0,0 l/m 14,5 km/h (3 Bft) 0 min 7,7 km/h (2 Bft)
03.04.2010 02:02 14,9 C 7,5 C 0,0 UV-I 0,0 C 47 % 79 % 0 % 1007,5 hPa 0,0 l/m 14,1 km/h (3 Bft) 0 min 12,8 km/h (3 Bft)
03.04.2010 02:04 14,9 C 7,5 C 0,0 UV-I 0,0 C 48 % 79 % 0 % 1007,5 hPa 0,0 l/m 14,1 km/h (3 Bft) 0 min 11,8 km/h (2 Bft)
03.04.2010 02:06 14,9 C 7,4 C 0,0 UV-I 0,0 C 48 % 80 % 0 % 1007,5 hPa 0,0 l/m 13,3 km/h (3 Bft) 0 min 3,8 km/h (1 Bft)
03.04.2010 02:08 14,9 C 7,5 C 0,0 UV-I 0,0 C 47 % 80 % 0 % 1007,5 hPa 0,0 l/m 12,8 km/h (3 Bft) 0 min 17,8 km/h (3 Bft)
03.04.2010 02:10 15,0 C 7,4 C 0,0 UV-I 0,0 C 48 % 80 % 0 % 1007,5 hPa 0,0 l/m 12,8 km/h (3 Bft) 0 min 10,1 km/h (2 Bft)
03.04.2010 02:12 14,9 C 7,4 C 0,0 UV-I 0,0 C 48 % 80 % 0 % 1007,4 hPa 0,0 l/m 12,8 km/h (3 Bft) 0 min 11,8 km/h (2 Bft)
03.04.2010 02:14 15,0 C 7,5 C 0,0 UV-I 0,0 C 48 % 80 % 0 % 1007,4 hPa 0,0 l/m 13,3 km/h (3 Bft) 0 min 12,8 km/h (3 Bft)
03.04.2010 02:16 15,0 C 7,5 C 0,0 UV-I 0,0 C 48 % 80 % 0 % 1007,4 hPa 0,0 l/m 12,8 km/h (3 Bft) 0 min 5,5 km/h (1 Bft)
03.04.2010 02:18 15,0 C 7,5 C 0,0 UV-I 0,0 C 48 % 81 % 0 % 1007,4 hPa 0,0 l/m 13,3 km/h (3 Bft) 0 min 13,2 km/h (3 Bft)
03.04.2010 02:20 15,0 C 7,5 C 0,0 UV-I 0,0 C 48 % 81 % 0 % 1007,4 hPa 0,0 l/m 13,3 km/h (3 Bft) 0 min 5,5 km/h (1 Bft)
03.04.2010 02:22 15,0 C 7,4 C 0,0 UV-I 0,0 C 48 % 81 % 0 % 1007,4 hPa 0,0 l/m 12,8 km/h (3 Bft) 0 min 8,7 km/h (2 Bft)
03.04.2010 02:24 15,0 C 7,3 C 0,0 UV-I 0,0 C 48 % 82 % 0 % 1007,4 hPa 0,0 l/m 12,4 km/h (3 Bft) 0 min 5,5 km/h (1 Bft)
03.04.2010 02:26 15,0 C 7,3 C 0,0 UV-I 0,0 C 48 % 82 % 0 % 1007,4 hPa 0,0 l/m 12,4 km/h (3 Bft) 0 min 11,5 km/h (2 Bft)
03.04.2010 02:28 15,0 C 7,3 C 0,0 UV-I 0,0 C 48 % 82 % 0 % 1007,4 hPa 0,1 l/m 12,8 km/h (3 Bft) 0 min 4,8 km/h (1 Bft)
03.04.2010 02:30 15,0 C 7,3 C 0,0 UV-I 0,0 C 48 % 82 % 0 % 1007,4 hPa 0,0 l/m 11,2 km/h (2 Bft) 0 min 4,8 km/h (1 Bft)
03.04.2010 02:32 15,0 C 7,3 C 0,0 UV-I 0,0 C 48 % 82 % 0 % 1007,4 hPa 0,0 l/m 11,2 km/h (2 Bft) 0 min 10,8 km/h (2 Bft)
03.04.2010 02:34 15,0 C 7,3 C 0,0 UV-I 0,0 C 48 % 83 % 0 % 1007,4 hPa 0,1 l/m 11,2 km/h (2 Bft) 0 min 10,8 km/h (2 Bft)
03.04.2010 02:36 15,0 C 7,2 C 0,0 UV-I 0,0 C 48 % 83 % 0 % 1007,4 hPa 0,0 l/m 10,8 km/h (2 Bft) 0 min 11,3 km/h (2 Bft)
03.04.2010 02:38 15,0 C 7,2 C 0,0 UV-I 0,0 C 48 % 83 % 0 % 1007,4 hPa 0,0 l/m 10,4 km/h (2 Bft) 0 min 7,7 km/h (2 Bft)
03.04.2010 02:40 15,0 C 7,2 C 0,0 UV-I 0,0 C 48 % 83 % 0 % 1007,4 hPa 0,0 l/m 10,8 km/h (2 Bft) 0 min 10,1 km/h (2 Bft)
03.04.2010 02:42 15,0 C 7,2 C 0,0 UV-I 0,0 C 48 % 83 % 0 % 1007,4 hPa 0,0 l/m 11,6 km/h (2 Bft) 0 min 5,3 km/h (1 Bft)
03.04.2010 02:44 15,0 C 7,2 C 0,0 UV-I 0,0 C 48 % 83 % 0 % 1007,4 hPa 0,0 l/m 11,2 km/h (2 Bft) 0 min 5,1 km/h (1 Bft)
03.04.2010 02:46 15,0 C 7,3 C 0,0 UV-I 0,0 C 48 % 84 % 0 % 1007,4 hPa 0,0 l/m 11,2 km/h (2 Bft) 0 min 8,9 km/h (2 Bft)
03.04.2010 02:48 15,0 C 7,3 C 0,0 UV-I 0,0 C 48 % 84 % 0 % 1007,4 hPa 0,0 l/m 10,0 km/h (2 Bft) 0 min 6,7 km/h (2 Bft)
03.04.2010 02:50 15,0 C 7,2 C 0,0 UV-I 0,0 C 48 % 84 % 0 % 1007,4 hPa 0,0 l/m 10,0 km/h (2 Bft) 0 min 6,0 km/h (2 Bft)
03.04.2010 02:52 15,0 C 7,3 C 0,0 UV-I 0,0 C 48 % 84 % 0 % 1007,3 hPa 0,1 l/m 10,0 km/h (2 Bft) 0 min 8,2 km/h (2 Bft)
03.04.2010 02:54 15,0 C 7,2 C 0,0 UV-I 0,0 C 49 % 84 % 0 % 1007,3 hPa 0,0 l/m 9,6 km/h (2 Bft) 0 min 7,9 km/h (2 Bft)
03.04.2010 02:56 15,0 C 7,2 C 0,0 UV-I 0,0 C 49 % 84 % 0 % 1007,3 hPa 0,0 l/m 10,4 km/h (2 Bft) 0 min 7,9 km/h (2 Bft)
03.04.2010 02:58 14,8 C 7,2 C 0,0 UV-I 0,0 C 49 % 84 % 0 % 1007,3 hPa 0,0 l/m 10,0 km/h (2 Bft) 0 min 6,0 km/h (2 Bft)
03.04.2010 03:00 14,8 C 7,2 C 0,0 UV-I 0,0 C 49 % 84 % 0 % 1007,3 hPa 0,0 l/m 10,4 km/h (2 Bft) 0 min 4,3 km/h (1 Bft)
03.04.2010 03:02 14,8 C 7,2 C 0,0 UV-I 0,0 C 49 % 84 % 0 % 1007,3 hPa 0,0 l/m 10,4 km/h (2 Bft) 0 min 12,5 km/h (3 Bft)
03.04.2010 03:04 15,0 C 7,2 C 0,0 UV-I 0,0 C 49 % 84 % 0 % 1007,3 hPa 0,0 l/m 10,4 km/h (2 Bft) 0 min 5,8 km/h (2 Bft)
03.04.2010 03:06 14,8 C 7,2 C 0,0 UV-I 0,0 C 49 % 84 % 0 % 1007,3 hPa 0,0 l/m 9,2 km/h (2 Bft) 0 min 6,5 km/h (2 Bft)
03.04.2010 03:08 14,8 C 7,2 C 0,0 UV-I 0,0 C 49 % 85 % 0 % 1007,3 hPa 0,1 l/m 8,4 km/h (2 Bft) 0 min 4,1 km/h (1 Bft)
03.04.2010 03:10 15,0 C 7,2 C 0,0 UV-I 0,0 C 49 % 85 % 0 % 1007,3 hPa 0,1 l/m 8,0 km/h (2 Bft) 0 min 6,5 km/h (2 Bft)
03.04.2010 03:12 14,8 C 7,2 C 0,0 UV-I 0,0 C 49 % 85 % 0 % 1007,5 hPa 0,0 l/m 7,6 km/h (2 Bft) 0 min 8,4 km/h (2 Bft)
03.04.2010 03:14 14,8 C 7,2 C 0,0 UV-I 0,0 C 49 % 85 % 0 % 1007,5 hPa 0,0 l/m 7,6 km/h (2 Bft) 0 min 6,7 km/h (2 Bft)
03.04.2010 03:16 14,8 C 7,1 C 0,0 UV-I 0,0 C 49 % 85 % 0 % 1007,5 hPa 0,1 l/m 8,0 km/h (2 Bft) 0 min 4,8 km/h (1 Bft)
03.04.2010 03:18 15,0 C 7,1 C 0,0 UV-I 0,0 C 49 % 85 % 0 % 1007,5 hPa 0,0 l/m 8,4 km/h (2 Bft) 0 min 10,6 km/h (2 Bft)
03.04.2010 03:20 14,8 C 7,1 C 0,0 UV-I 0,0 C 49 % 85 % 0 % 1007,5 hPa 0,0 l/m 9,6 km/h (2 Bft) 0 min 16,6 km/h (3 Bft)
03.04.2010 03:22 14,8 C 7,1 C 0,0 UV-I 0,0 C 49 % 85 % 0 % 1007,5 hPa 0,3 l/m 11,2 km/h (2 Bft) 0 min 15,2 km/h (3 Bft)
03.04.2010 03:24 14,8 C 7,1 C 0,0 UV-I 0,0 C 49 % 85 % 0 % 1007,5 hPa 0,0 l/m 10,4 km/h (2 Bft) 0 min 5,8 km/h (2 Bft)
03.04.2010 03:26 14,8 C 7,1 C 0,0 UV-I 0,0 C 49 % 85 % 0 % 1007,5 hPa 0,2 l/m 9,6 km/h (2 Bft) 0 min 3,8 km/h (1 Bft)
03.04.2010 03:28 14,8 C 7,1 C 0,0 UV-I 0,0 C 49 % 85 % 0 % 1007,5 hPa 0,2 l/m 8,8 km/h (2 Bft) 0 min 5,1 km/h (1 Bft)
03.04.2010 03:30 14,8 C 7,1 C 0,0 UV-I 0,0 C 49 % 86 % 0 % 1007,5 hPa 0,0 l/m 9,2 km/h (2 Bft) 0 min 10,1 km/h (2 Bft)
03.04.2010 03:32 14,8 C 7,0 C 0,0 UV-I 0,0 C 49 % 86 % 0 % 1007,6 hPa 0,1 l/m 7,6 km/h (2 Bft) 0 min 4,8 km/h (1 Bft)
03.04.2010 03:34 14,8 C 7,1 C 0,0 UV-I 0,0 C 49 % 86 % 0 % 1007,6 hPa 0,0 l/m 6,8 km/h (2 Bft) 0 min 0,0 km/h (0 Bft)
03.04.2010 03:36 14,9 C 7,1 C 0,0 UV-I 0,0 C 49 % 86 % 0 % 1007,6 hPa 0,2 l/m 7,2 km/h (2 Bft) 0 min 3,8 km/h (1 Bft)
03.04.2010 03:38 14,8 C 7,1 C 0,0 UV-I 0,0 C 50 % 86 % 0 % 1007,6 hPa 0,0 l/m 6,8 km/h (2 Bft) 0 min 7,2 km/h (2 Bft)
03.04.2010 03:40 14,8 C 7,1 C 0,0 UV-I 0,0 C 50 % 86 % 0 % 1007,6 hPa 0,0 l/m 6,8 km/h (2 Bft) 0 min 4,6 km/h (1 Bft)
03.04.2010 03:42 14,8 C 7,1 C 0,0 UV-I 0,0 C 50 % 87 % 0 % 1007,6 hPa 0,1 l/m 5,2 km/h (1 Bft) 0 min 0,0 km/h (0 Bft)
03.04.2010 03:44 14,9 C 7,1 C 0,0 UV-I 0,0 C 50 % 87 % 0 % 1007,6 hPa 0,0 l/m 4,0 km/h (1 Bft) 0 min 0,0 km/h (0 Bft)
03.04.2010 03:46 14,8 C 7,1 C 0,0 UV-I 0,0 C 50 % 87 % 0 % 1007,6 hPa 0,0 l/m 3,6 km/h (1 Bft) 0 min 0,0 km/h (0 Bft)
03.04.2010 03:48 14,9 C 7,1 C 0,0 UV-I 0,0 C 50 % 87 % 0 % 1007,6 hPa 0,0 l/m 2,8 km/h (1 Bft) 0 min 2,6 km/h (1 Bft)
03.04.2010 03:50 14,9 C 7,1 C 0,0 UV-I 0,0 C 50 % 87 % 0 % 1007,6 hPa 0,0 l/m 2,0 km/h (1 Bft) 0 min 0,0 km/h (0 Bft)
03.04.2010 03:52 14,8 C 7,1 C 0,0 UV-I 0,0 C 50 % 87 % 0 % 1007,3 hPa 0,0 l/m 1,2 km/h (1 Bft) 0 min 0,0 km/h (0 Bft)
03.04.2010 03:54 14,9 C 7,1 C 0,0 UV-I 0,0 C 50 % 87 % 0 % 1007,3 hPa 0,0 l/m 2,0 km/h (1 Bft) 0 min 5,5 km/h (1 Bft)
03.04.2010 03:56 14,9 C 7,0 C 0,0 UV-I 0,0 C 50 % 87 % 0 % 1007,3 hPa 0,0 l/m 2,4 km/h (1 Bft) 0 min 5,1 km/h (1 Bft)
03.04.2010 03:58 14,8 C 7,0 C 0,0 UV-I 0,0 C 50 % 87 % 0 % 1007,3 hPa 0,0 l/m 3,2 km/h (1 Bft) 0 min 5,5 km/h (1 Bft)
03.04.2010 04:00 14,9 C 7,0 C 0,0 UV-I 0,0 C 50 % 87 % 0 % 1007,3 hPa 0,0 l/m 4,0 km/h (1 Bft) 0 min 5,1 km/h (1 Bft)
03.04.2010 04:02 14,8 C 6,9 C 0,0 UV-I 0,0 C 50 % 88 % 0 % 1007,3 hPa 0,0 l/m 4,8 km/h (1 Bft) 0 min 7,0 km/h (2 Bft)
03.04.2010 04:04 14,8 C 6,9 C 0,0 UV-I 0,0 C 50 % 88 % 0 % 1007,3 hPa 0,0 l/m 5,6 km/h (1 Bft) 0 min 2,9 km/h (1 Bft)
03.04.2010 04:06 14,9 C 6,9 C 0,0 UV-I 0,0 C 50 % 88 % 0 % 1007,3 hPa 0,0 l/m 4,8 km/h (1 Bft) 0 min 3,6 km/h (1 Bft)
03.04.2010 04:08 14,9 C 7,0 C 0,0 UV-I 0,0 C 50 % 88 % 0 % 1007,3 hPa 0,0 l/m 4,4 km/h (1 Bft) 0 min 3,8 km/h (1 Bft)
03.04.2010 04:10 14,9 C 7,0 C 0,0 UV-I 0,0 C 50 % 88 % 0 % 1007,3 hPa 0,0 l/m 3,6 km/h (1 Bft) 0 min 0,0 km/h (0 Bft)
03.04.2010 04:13 14,9 C 7,0 C 0,0 UV-I 0,0 C 50 % 88 % 0 % 1007,7 hPa 0,0 l/m 1,6 km/h (1 Bft) 0 min 2,9 km/h (1 Bft)
03.04.2010 04:18 14,8 C 7,1 C 0,0 UV-I 0,0 C 50 % 88 % 0 % 1007,7 hPa 0,0 l/m 2,4 km/h (1 Bft) 0 min 8,7 km/h (2 Bft)
03.04.2010 04:19 14,8 C 7,1 C 0,0 UV-I 0,0 C 50 % 88 % 0 % 1007,7 hPa 0,0 l/m 2,4 km/h (1 Bft) 0 min 8,7 km/h (2 Bft)
03.04.2010 04:22 14,9 C 7,1 C 0,0 UV-I 0,0 C 50 % 88 % 0 % 1007,7 hPa 0,0 l/m 2,8 km/h (1 Bft) 0 min 0,0 km/h (0 Bft)
03.04.2010 04:24 14,9 C 7,1 C 0,0 UV-I 0,0 C 50 % 88 % 0 % 1007,7 hPa 0,0 l/m 2,8 km/h (1 Bft) 0 min 0,0 km/h (0 Bft)
03.04.2010 04:26 14,8 C 7,1 C 0,0 UV-I 0,0 C 50 % 88 % 0 % 1007,7 hPa 0,0 l/m 2,8 km/h (1 Bft) 0 min 3,6 km/h (1 Bft)
03.04.2010 04:28 14,8 C 7,0 C 0,0 UV-I 0,0 C 50 % 88 % 0 % 1007,7 hPa 0,0 l/m 2,4 km/h (1 Bft) 0 min 0,0 km/h (0 Bft)
03.04.2010 04:30 14,8 C 7,0 C 0,0 UV-I 0,0 C 50 % 88 % 0 % 1007,7 hPa 0,0 l/m 2,4 km/h (1 Bft) 0 min 3,1 km/h (1 Bft)
03.04.2010 04:32 14,8 C 7,0 C 0,0 UV-I 0,0 C 50 % 88 % 0 % 1007,8 hPa 0,0 l/m 1,6 km/h (1 Bft) 0 min 0,0 km/h (0 Bft)
03.04.2010 04:34 14,8 C 7,1 C 0,0 UV-I 0,0 C 50 % 88 % 0 % 1007,8 hPa 0,0 l/m 1,6 km/h (1 Bft) 0 min 3,6 km/h (1 Bft)
03.04.2010 04:36 14,9 C 7,1 C 0,0 UV-I 0,0 C 50 % 88 % 0 % 1007,8 hPa 0,0 l/m 2,0 km/h (1 Bft) 0 min 2,6 km/h (1 Bft)
03.04.2010 04:38 14,8 C 7,0 C 0,0 UV-I 0,0 C 50 % 88 % 0 % 1007,8 hPa 0,0 l/m 2,0 km/h (1 Bft) 0 min 0,0 km/h (0 Bft)
03.04.2010 04:40 14,8 C 7,0 C 0,0 UV-I 0,0 C 51 % 88 % 0 % 1007,8 hPa 0,0 l/m 2,0 km/h (1 Bft) 0 min 0,0 km/h (0 Bft)
03.04.2010 04:42 14,8 C 7,0 C 0,0 UV-I 0,0 C 51 % 88 % 0 % 1007,8 hPa 0,0 l/m 1,6 km/h (1 Bft) 0 min 0,0 km/h (0 Bft)
03.04.2010 04:44 14,8 C 7,0 C 0,0 UV-I 0,0 C 51 % 88 % 0 % 1007,8 hPa 0,0 l/m 1,2 km/h (1 Bft) 0 min 0,0 km/h (0 Bft)
03.04.2010 04:46 14,8 C 7,1 C 0,0 UV-I 0,0 C 51 % 88 % 0 % 1007,8 hPa 0,0 l/m 0,8 km/h (0 Bft) 0 min 0,0 km/h (0 Bft)
03.04.2010 04:48 14,8 C 7,0 C 0,0 UV-I 0,0 C 51 % 88 % 0 % 1007,8 hPa 0,0 l/m 0,8 km/h (0 Bft) 0 min 2,6 km/h (1 Bft)
03.04.2010 04:50 14,8 C 7,0 C 0,0 UV-I 0,0 C 51 % 88 % 0 % 1007,8 hPa 0,0 l/m 0,4 km/h (0 Bft) 0 min 0,0 km/h (0 Bft)
03.04.2010 04:52 14,8 C 6,9 C 0,0 UV-I 0,0 C 51 % 88 % 0 % 1007,8 hPa 0,0 l/m 0,8 km/h (0 Bft) 0 min 0,0 km/h (0 Bft)
03.04.2010 04:54 14,8 C 6,9 C 0,0 UV-I 0,0 C 51 % 88 % 0 % 1007,8 hPa 0,0 l/m 0,8 km/h (0 Bft) 0 min 3,4 km/h (1 Bft)
03.04.2010 04:56 14,8 C 6,9 C 0,0 UV-I 0,0 C 51 % 88 % 0 % 1007,8 hPa 0,0 l/m 1,2 km/h (1 Bft) 0 min 0,0 km/h (0 Bft)
03.04.2010 04:58 14,8 C 6,9 C 0,0 UV-I 0,0 C 51 % 88 % 0 % 1007,8 hPa 0,0 l/m 1,2 km/h (1 Bft) 0 min 0,0 km/h (0 Bft)
03.04.2010 05:00 14,8 C 6,9 C 0,0 UV-I 0,0 C 51 % 88 % 0 % 1007,8 hPa 0,0 l/m 1,2 km/h (1 Bft) 0 min 2,9 km/h (1 Bft)
03.04.2010 05:02 14,8 C 6,9 C 0,0 UV-I 0,0 C 51 % 88 % 0 % 1007,8 hPa 0,0 l/m 0,8 km/h (0 Bft) 0 min 0,0 km/h (0 Bft)
03.04.2010 05:04 14,8 C 6,8 C 0,0 UV-I 0,0 C 51 % 88 % 0 % 1007,8 hPa 0,0 l/m 1,2 km/h (1 Bft) 0 min 2,9 km/h (1 Bft)
03.04.2010 05:06 14,8 C 6,8 C 0,0 UV-I 0,0 C 51 % 88 % 0 % 1007,8 hPa 0,0 l/m 1,6 km/h (1 Bft) 0 min 10,3 km/h (2 Bft)
03.04.2010 05:08 14,8 C 6,9 C 0,0 UV-I 0,0 C 51 % 88 % 0 % 1007,8 hPa 0,0 l/m 1,6 km/h (1 Bft) 0 min 0,0 km/h (0 Bft)
03.04.2010 05:10 14,8 C 6,8 C 0,0 UV-I 0,0 C 51 % 88 % 0 % 1007,8 hPa 0,0 l/m 2,0 km/h (1 Bft) 0 min 0,0 km/h (0 Bft)
03.04.2010 05:12 14,8 C 6,9 C 0,0 UV-I 0,0 C 51 % 88 % 0 % 1007,5 hPa 0,0 l/m 2,0 km/h (1 Bft) 0 min 0,0 km/h (0 Bft)
03.04.2010 05:14 14,8 C 6,9 C 0,0 UV-I 0,0 C 51 % 88 % 0 % 1007,5 hPa 0,0 l/m 2,0 km/h (1 Bft) 0 min 0,0 km/h (0 Bft)
03.04.2010 05:16 14,8 C 6,8 C 0,0 UV-I 0,0 C 51 % 88 % 0 % 1007,5 hPa 0,0 l/m 2,4 km/h (1 Bft) 0 min 3,4 km/h (1 Bft)
03.04.2010 05:18 14,8 C 6,8 C 0,0 UV-I 0,0 C 51 % 88 % 0 % 1007,5 hPa 0,0 l/m 1,6 km/h (1 Bft) 0 min 4,3 km/h (1 Bft)
03.04.2010 05:20 14,8 C 6,9 C 0,0 UV-I 0,0 C 51 % 88 % 0 % 1007,5 hPa 0,0 l/m 1,6 km/h (1 Bft) 0 min 3,8 km/h (1 Bft)
03.04.2010 05:22 14,8 C 6,8 C 0,0 UV-I 0,0 C 51 % 88 % 0 % 1007,5 hPa 0,0 l/m 1,6 km/h (1 Bft) 0 min 0,0 km/h (0 Bft)
03.04.2010 05:24 14,8 C 6,8 C 0,0 UV-I 0,0 C 51 % 88 % 0 % 1007,5 hPa 0,0 l/m 2,0 km/h (1 Bft) 0 min 3,1 km/h (1 Bft)
03.04.2010 05:26 14,8 C 6,8 C 0,0 UV-I 0,0 C 51 % 88 % 0 % 1007,5 hPa 0,0 l/m 2,4 km/h (1 Bft) 0 min 3,1 km/h (1 Bft)
03.04.2010 05:28 14,8 C 6,8 C 0,0 UV-I 0,0 C 51 % 88 % 0 % 1007,5 hPa 0,0 l/m 2,0 km/h (1 Bft) 0 min 0,0 km/h (0 Bft)
03.04.2010 05:30 14,8 C 6,8 C 0,0 UV-I 0,0 C 51 % 89 % 0 % 1007,5 hPa 0,0 l/m 2,4 km/h (1 Bft) 0 min 3,8 km/h (1 Bft)
03.04.2010 05:32 14,8 C 6,7 C 0,0 UV-I 0,0 C 51 % 89 % 0 % 1007,5 hPa 0,0 l/m 2,8 km/h (1 Bft) 0 min 5,1 km/h (1 Bft)
03.04.2010 05:34 14,8 C 6,7 C 0,0 UV-I 0,0 C 51 % 89 % 0 % 1007,5 hPa 0,0 l/m 3,6 km/h (1 Bft) 0 min 3,4 km/h (1 Bft)
03.04.2010 05:36 14,8 C 6,7 C 0,0 UV-I 0,0 C 51 % 89 % 0 % 1007,5 hPa 0,0 l/m 4,0 km/h (1 Bft) 0 min 3,6 km/h (1 Bft)
03.04.2010 05:38 14,8 C 6,7 C 0,0 UV-I 0,0 C 51 % 89 % 0 % 1007,5 hPa 0,0 l/m 4,0 km/h (1 Bft) 0 min 3,1 km/h (1 Bft)
03.04.2010 05:40 14,8 C 6,7 C 0,0 UV-I 0,0 C 51 % 89 % 0 % 1007,5 hPa 0,0 l/m 4,0 km/h (1 Bft) 0 min 0,0 km/h (0 Bft)
03.04.2010 05:42 14,8 C 6,7 C 0,0 UV-I 0,0 C 51 % 89 % 0 % 1007,5 hPa 0,0 l/m 3,2 km/h (1 Bft) 0 min 0,0 km/h (0 Bft)
03.04.2010 05:44 14,8 C 6,7 C 0,0 UV-I 0,0 C 51 % 89 % 0 % 1007,5 hPa 0,0 l/m 2,4 km/h (1 Bft) 0 min 0,0 km/h (0 Bft)
03.04.2010 05:46 14,8 C 6,7 C 0,0 UV-I 0,0 C 51 % 89 % 0 % 1007,5 hPa 0,0 l/m 1,6 km/h (1 Bft) 0 min 2,6 km/h (1 Bft)
03.04.2010 05:48 14,8 C 6,7 C 0,0 UV-I 0,0 C 51 % 89 % 0 % 1007,5 hPa 0,0 l/m 1,2 km/h (1 Bft) 0 min 0,0 km/h (0 Bft)
03.04.2010 05:50 14,8 C 6,7 C 0,0 UV-I 0,0 C 51 % 89 % 0 % 1007,5 hPa 0,0 l/m 0,8 km/h (0 Bft) 0 min 0,0 km/h (0 Bft)
03.04.2010 05:52 14,8 C 6,6 C 0,0 UV-I 0,0 C 51 % 89 % 0 % 1007,4 hPa 0,0 l/m 0,8 km/h (0 Bft) 0 min 0,0 km/h (0 Bft)
03.04.2010 05:54 14,8 C 6,5 C 0,0 UV-I 0,0 C 51 % 89 % 0 % 1007,4 hPa 0,0 l/m 0,8 km/h (0 Bft) 0 min 0,0 km/h (0 Bft)
03.04.2010 05:56 14,8 C 6,5 C 0,0 UV-I 0,0 C 51 % 89 % 0 % 1007,4 hPa 0,0 l/m 0,4 km/h (0 Bft) 0 min 0,0 km/h (0 Bft)
03.04.2010 05:58 14,8 C 6,4 C 0,0 UV-I 0,0 C 51 % 89 % 0 % 1007,4 hPa 0,0 l/m 0,0 km/h (0 Bft) 0 min 0,0 km/h (0 Bft)
03.04.2010 06:00 14,8 C 6,4 C 0,0 UV-I 0,0 C 51 % 89 % 0 % 1007,4 hPa 0,0 l/m 0,0 km/h (0 Bft) 0 min 0,0 km/h (0 Bft)
03.04.2010 06:02 14,8 C 6,4 C 0,0 UV-I 0,0 C 51 % 89 % 0 % 1007,4 hPa 0,0 l/m 0,0 km/h (0 Bft) 0 min 0,0 km/h (0 Bft)
03.04.2010 06:04 14,8 C 6,5 C 0,0 UV-I 0,0 C 51 % 89 % 0 % 1007,4 hPa 0,0 l/m 0,0 km/h (0 Bft) 0 min 0,0 km/h (0 Bft)
03.04.2010 06:06 14,8 C 6,4 C 0,0 UV-I 0,0 C 51 % 89 % 0 % 1007,4 hPa 0,0 l/m 0,4 km/h (0 Bft) 0 min 4,3 km/h (1 Bft)
03.04.2010 06:08 14,8 C 6,4 C 0,0 UV-I 0,0 C 51 % 89 % 0 % 1007,4 hPa 0,0 l/m 1,2 km/h (1 Bft) 0 min 5,8 km/h (2 Bft)
03.04.2010 06:10 14,8 C 6,4 C 0,0 UV-I 0,0 C 51 % 89 % 0 % 1007,4 hPa 0,0 l/m 2,0 km/h (1 Bft) 0 min 3,4 km/h (1 Bft)
03.04.2010 06:12 14,8 C 6,3 C 0,0 UV-I 0,0 C 51 % 89 % 0 % 1007,6 hPa 0,0 l/m 2,8 km/h (1 Bft) 0 min 0,0 km/h (0 Bft)
03.04.2010 06:14 14,8 C 6,3 C 0,0 UV-I 0,0 C 51 % 89 % 0 % 1007,6 hPa 0,0 l/m 3,2 km/h (1 Bft) 0 min 4,3 km/h (1 Bft)
03.04.2010 06:16 14,8 C 6,3 C 0,0 UV-I 0,0 C 51 % 89 % 0 % 1007,6 hPa 0,0 l/m 3,6 km/h (1 Bft) 0 min 0,0 km/h (0 Bft)
03.04.2010 06:18 14,8 C 6,3 C 0,0 UV-I 0,0 C 51 % 89 % 0 % 1007,6 hPa 0,0 l/m 3,6 km/h (1 Bft) 0 min 0,0 km/h (0 Bft)
03.04.2010 06:20 14,8 C 6,3 C 0,0 UV-I 0,0 C 51 % 89 % 0 % 1007,6 hPa 0,0 l/m 2,4 km/h (1 Bft) 0 min 0,0 km/h (0 Bft)
03.04.2010 06:22 14,8 C 6,3 C 0,0 UV-I 0,0 C 51 % 90 % 0 % 1007,6 hPa 0,0 l/m 2,4 km/h (1 Bft) 0 min 3,4 km/h (1 Bft)
03.04.2010 06:24 14,8 C 6,3 C 0,0 UV-I 0,0 C 51 % 90 % 0 % 1007,6 hPa 0,0 l/m 2,4 km/h (1 Bft) 0 min 5,1 km/h (1 Bft)
03.04.2010 06:26 14,8 C 6,3 C 0,0 UV-I 0,0 C 51 % 90 % 0 % 1007,6 hPa 0,0 l/m 2,8 km/h (1 Bft) 0 min 2,4 km/h (1 Bft)
03.04.2010 06:28 14,8 C 6,3 C 0,0 UV-I 0,0 C 51 % 90 % 0 % 1007,6 hPa 0,0 l/m 3,2 km/h (1 Bft) 0 min 4,8 km/h (1 Bft)
03.04.2010 06:30 14,8 C 6,2 C 0,0 UV-I 0,0 C 51 % 90 % 0 % 1007,6 hPa 0,0 l/m 4,0 km/h (1 Bft) 0 min 3,1 km/h (1 Bft)
03.04.2010 06:32 14,8 C 6,2 C 0,0 UV-I 0,0 C 51 % 90 % 0 % 1007,5 hPa 0,0 l/m 4,0 km/h (1 Bft) 0 min 0,0 km/h (0 Bft)
03.04.2010 06:34 14,8 C 6,2 C 0,0 UV-I 0,0 C 51 % 90 % 0 % 1007,5 hPa 0,0 l/m 5,2 km/h (1 Bft) 0 min 6,7 km/h (2 Bft)
03.04.2010 06:36 14,8 C 6,2 C 0,0 UV-I 0,0 C 51 % 90 % 0 % 1007,5 hPa 0,0 l/m 5,2 km/h (1 Bft) 0 min 6,3 km/h (2 Bft)
03.04.2010 06:38 14,8 C 6,2 C 0,0 UV-I 0,0 C 51 % 90 % 0 % 1007,5 hPa 0,0 l/m 5,6 km/h (1 Bft) 0 min 4,6 km/h (1 Bft)
03.04.2010 06:40 14,8 C 6,2 C 0,0 UV-I 0,0 C 51 % 90 % 0 % 1007,5 hPa 0,0 l/m 5,6 km/h (1 Bft) 0 min 0,0 km/h (0 Bft)
03.04.2010 06:42 14,8 C 6,2 C 0,0 UV-I 0,0 C 51 % 90 % 0 % 1007,5 hPa 0,0 l/m 5,2 km/h (1 Bft) 0 min 2,6 km/h (1 Bft)
03.04.2010 06:44 14,8 C 6,2 C 0,0 UV-I 0,0 C 51 % 90 % 0 % 1007,5 hPa 0,0 l/m 5,2 km/h (1 Bft) 0 min 4,6 km/h (1 Bft)
03.04.2010 06:46 14,8 C 6,3 C 0,0 UV-I 0,0 C 51 % 90 % 0 % 1007,5 hPa 0,0 l/m 4,0 km/h (1 Bft) 0 min 3,6 km/h (1 Bft)
03.04.2010 06:48 14,8 C 6,3 C 0,0 UV-I 0,0 C 51 % 90 % 0 % 1007,5 hPa 0,0 l/m 3,6 km/h (1 Bft) 0 min 4,8 km/h (1 Bft)
03.04.2010 06:50 14,8 C 6,3 C 0,0 UV-I 0,0 C 51 % 90 % 0 % 1007,5 hPa 0,0 l/m 3,2 km/h (1 Bft) 0 min 0,0 km/h (0 Bft)
03.04.2010 06:52 14,8 C 6,3 C 0,0 UV-I 0,0 C 51 % 90 % 0 % 1007,4 hPa 0,0 l/m 4,4 km/h (1 Bft) 0 min 8,4 km/h (2 Bft)
03.04.2010 06:54 14,8 C 6,3 C 0,0 UV-I 0,0 C 51 % 90 % 0 % 1007,4 hPa 0,0 l/m 4,8 km/h (1 Bft) 0 min 7,2 km/h (2 Bft)
03.04.2010 06:56 14,8 C 6,2 C 0,0 UV-I 0,0 C 51 % 90 % 0 % 1007,4 hPa 0,0 l/m 5,2 km/h (1 Bft) 0 min 3,8 km/h (1 Bft)
03.04.2010 06:58 14,8 C 6,2 C 0,0 UV-I 0,0 C 51 % 90 % 0 % 1007,4 hPa 0,0 l/m 4,8 km/h (1 Bft) 0 min 0,0 km/h (0 Bft)
03.04.2010 07:00 14,8 C 6,2 C 0,0 UV-I 0,0 C 51 % 90 % 0 % 1007,4 hPa 0,0 l/m 4,0 km/h (1 Bft) 0 min 0,0 km/h (0 Bft)
03.04.2010 07:02 14,8 C 6,1 C 0,0 UV-I 0,0 C 51 % 90 % 0 % 1007,4 hPa 0,0 l/m 4,4 km/h (1 Bft) 0 min 7,0 km/h (2 Bft)
03.04.2010 07:04 14,8 C 6,1 C 0,0 UV-I 0,0 C 51 % 90 % 0 % 1007,4 hPa 0,0 l/m 4,4 km/h (1 Bft) 0 min 7,5 km/h (2 Bft)
03.04.2010 07:06 14,8 C 6,0 C 0,0 UV-I 0,0 C 51 % 89 % 0 % 1007,4 hPa 0,0 l/m 4,4 km/h (1 Bft) 0 min 6,3 km/h (2 Bft)
03.04.2010 07:08 14,8 C 6,0 C 0,0 UV-I 0,0 C 51 % 89 % 0 % 1007,4 hPa 0,0 l/m 5,2 km/h (1 Bft) 0 min 4,6 km/h (1 Bft)
03.04.2010 07:10 14,8 C 6,0 C 0,0 UV-I 0,0 C 51 % 89 % 0 % 1007,4 hPa 0,0 l/m 6,0 km/h (2 Bft) 0 min 4,6 km/h (1 Bft)
03.04.2010 07:12 14,8 C 6,0 C 0,0 UV-I 0,0 C 51 % 89 % 0 % 1007,5 hPa 0,0 l/m 6,0 km/h (2 Bft) 0 min 2,4 km/h (1 Bft)
03.04.2010 07:14 14,8 C 6,0 C 0,0 UV-I 0,0 C 51 % 89 % 0 % 1007,5 hPa 0,0 l/m 5,6 km/h (1 Bft) 0 min 5,8 km/h (2 Bft)
03.04.2010 07:16 14,8 C 5,9 C 0,0 UV-I 0,0 C 51 % 89 % 0 % 1007,5 hPa 0,0 l/m 4,8 km/h (1 Bft) 0 min 2,9 km/h (1 Bft)
03.04.2010 07:18 14,8 C 6,0 C 0,0 UV-I 0,0 C 51 % 89 % 0 % 1007,5 hPa 0,0 l/m 4,8 km/h (1 Bft) 0 min 5,5 km/h (1 Bft)
03.04.2010 07:20 14,8 C 5,9 C 0,0 UV-I 0,0 C 51 % 89 % 0 % 1007,5 hPa 0,0 l/m 5,2 km/h (1 Bft) 0 min 3,6 km/h (1 Bft)
03.04.2010 07:22 14,8 C 5,9 C 0,0 UV-I 0,0 C 51 % 89 % 0 % 1007,5 hPa 0,0 l/m 4,4 km/h (1 Bft) 0 min 0,0 km/h (0 Bft)
03.04.2010 07:24 14,8 C 5,9 C 0,0 UV-I 0,0 C 51 % 89 % 0 % 1007,5 hPa 0,0 l/m 5,2 km/h (1 Bft) 0 min 3,1 km/h (1 Bft)
03.04.2010 07:26 14,8 C 5,8 C 0,0 UV-I 0,0 C 51 % 89 % 0 % 1007,5 hPa 0,0 l/m 5,2 km/h (1 Bft) 0 min 6,3 km/h (2 Bft)
03.04.2010 07:28 14,8 C 5,9 C 0,0 UV-I 0,0 C 51 % 89 % 0 % 1007,5 hPa 0,0 l/m 6,0 km/h (2 Bft) 0 min 5,5 km/h (1 Bft)
03.04.2010 07:30 14,8 C 5,9 C 0,0 UV-I 0,0 C 51 % 89 % 0 % 1007,5 hPa 0,0 l/m 6,0 km/h (2 Bft) 0 min 5,8 km/h (2 Bft)
03.04.2010 07:32 14,8 C 5,8 C 0,0 UV-I 0,0 C 51 % 89 % 0 % 1007,4 hPa 0,0 l/m 6,8 km/h (2 Bft) 0 min 6,5 km/h (2 Bft)
03.04.2010 07:34 14,8 C 5,8 C 0,0 UV-I 0,0 C 51 % 89 % 0 % 1007,4 hPa 0,0 l/m 7,6 km/h (2 Bft) 0 min 6,7 km/h (2 Bft)
03.04.2010 07:36 14,8 C 5,7 C 0,0 UV-I 0,0 C 51 % 89 % 0 % 1007,4 hPa 0,0 l/m 7,2 km/h (2 Bft) 0 min 7,2 km/h (2 Bft)
03.04.2010 07:38 14,6 C 5,7 C 0,0 UV-I 0,0 C 51 % 89 % 0 % 1007,4 hPa 0,0 l/m 7,6 km/h (2 Bft) 0 min 3,4 km/h (1 Bft)
03.04.2010 07:40 14,8 C 5,7 C 0,0 UV-I 0,0 C 51 % 89 % 0 % 1007,4 hPa 0,0 l/m 6,8 km/h (2 Bft) 0 min 3,1 km/h (1 Bft)
03.04.2010 07:42 14,6 C 5,7 C 0,0 UV-I 0,0 C 51 % 89 % 0 % 1007,4 hPa 0,0 l/m 6,0 km/h (2 Bft) 0 min 3,6 km/h (1 Bft)
03.04.2010 07:44 14,8 C 5,7 C 0,0 UV-I 0,0 C 51 % 89 % 0 % 1007,4 hPa 0,0 l/m 5,6 km/h (1 Bft) 0 min 4,8 km/h (1 Bft)
03.04.2010 07:46 14,6 C 5,7 C 0,0 UV-I 0,0 C 51 % 89 % 0 % 1007,4 hPa 0,0 l/m 6,4 km/h (2 Bft) 0 min 7,2 km/h (2 Bft)
03.04.2010 07:48 14,6 C 5,7 C 0,0 UV-I 0,0 C 51 % 89 % 0 % 1007,4 hPa 0,0 l/m 5,6 km/h (1 Bft) 0 min 5,3 km/h (1 Bft)
03.04.2010 07:50 14,6 C 5,7 C 0,0 UV-I 0,0 C 51 % 89 % 0 % 1007,4 hPa 0,0 l/m 4,4 km/h (1 Bft) 0 min 0,0 km/h (0 Bft)
03.04.2010 07:52 14,6 C 5,7 C 0,0 UV-I 0,0 C 51 % 89 % 0 % 1007,4 hPa 0,0 l/m 4,0 km/h (1 Bft) 0 min 4,6 km/h (1 Bft)
03.04.2010 07:54 14,8 C 5,7 C 0,0 UV-I 0,0 C 51 % 89 % 0 % 1007,4 hPa 0,0 l/m 3,6 km/h (1 Bft) 0 min 2,4 km/h (1 Bft)
03.04.2010 07:58 14,6 C 5,7 C 0,0 UV-I 0,0 C 51 % 89 % 0 % 1007,4 hPa 0,0 l/m 3,2 km/h (1 Bft) 0 min 7,5 km/h (2 Bft)
03.04.2010 08:00 14,6 C 5,7 C 0,1 UV-I 0,0 C 51 % 89 % 0 % 1007,4 hPa 0,0 l/m 4,0 km/h (1 Bft) 0 min 3,1 km/h (1 Bft)
03.04.2010 08:02 14,6 C 5,7 C 0,1 UV-I 0,0 C 51 % 89 % 0 % 1007,4 hPa 0,0 l/m 4,4 km/h (1 Bft) 0 min 5,5 km/h (1 Bft)
03.04.2010 08:04 14,6 C 5,7 C 0,1 UV-I 0,0 C 51 % 89 % 0 % 1007,4 hPa 0,0 l/m 5,6 km/h (1 Bft) 0 min 3,4 km/h (1 Bft)
03.04.2010 08:06 14,8 C 5,8 C 0,2 UV-I 0,0 C 51 % 89 % 0 % 1007,4 hPa 0,0 l/m 6,0 km/h (2 Bft) 0 min 7,7 km/h (2 Bft)
03.04.2010 08:08 14,8 C 5,7 C 0,2 UV-I 0,0 C 51 % 89 % 0 % 1007,4 hPa 0,0 l/m 6,8 km/h (2 Bft) 0 min 9,1 km/h (2 Bft)
03.04.2010 08:10 14,6 C 5,8 C 0,2 UV-I 0,0 C 51 % 89 % 0 % 1007,4 hPa 0,0 l/m 6,8 km/h (2 Bft) 0 min 4,8 km/h (1 Bft)
03.04.2010 08:12 14,6 C 5,7 C 0,2 UV-I 0,0 C 51 % 89 % 0 % 1007,8 hPa 0,0 l/m 6,8 km/h (2 Bft) 0 min 5,8 km/h (2 Bft)
03.04.2010 08:16 14,6 C 5,9 C 0,2 UV-I 0,0 C 51 % 89 % 0 % 1007,8 hPa 0,0 l/m 8,4 km/h (2 Bft) 0 min 7,5 km/h (2 Bft)
03.04.2010 08:18 14,6 C 5,9 C 0,2 UV-I 0,0 C 51 % 89 % 0 % 1007,8 hPa 0,0 l/m 8,4 km/h (2 Bft) 0 min 7,0 km/h (2 Bft)
03.04.2010 08:20 14,6 C 5,8 C 0,3 UV-I 0,0 C 51 % 89 % 0 % 1007,8 hPa 0,0 l/m 8,8 km/h (2 Bft) 0 min 7,0 km/h (2 Bft)
03.04.2010 08:22 14,6 C 5,9 C 0,3 UV-I 0,0 C 51 % 89 % 0 % 1007,8 hPa 0,0 l/m 9,2 km/h (2 Bft) 0 min 10,6 km/h (2 Bft)
03.04.2010 08:24 14,6 C 5,9 C 0,3 UV-I 0,0 C 51 % 89 % 0 % 1007,8 hPa 0,0 l/m 10,8 km/h (2 Bft) 0 min 6,5 km/h (2 Bft)
03.04.2010 08:26 14,8 C 5,9 C 0,0 UV-I 0,0 C 51 % 89 % 0 % 1007,8 hPa 0,0 l/m 10,8 km/h (2 Bft) 0 min 8,9 km/h (2 Bft)
03.04.2010 08:28 14,6 C 5,9 C 0,0 UV-I 0,0 C 51 % 89 % 0 % 1007,8 hPa 0,0 l/m 10,0 km/h (2 Bft) 0 min 4,6 km/h (1 Bft)
03.04.2010 08:30 14,6 C 6,0 C 0,3 UV-I 0,0 C 51 % 89 % 0 % 1007,8 hPa 0,0 l/m 10,8 km/h (2 Bft) 0 min 8,7 km/h (2 Bft)
03.04.2010 08:32 14,6 C 6,1 C 0,3 UV-I 0,0 C 51 % 90 % 0 % 1007,9 hPa 0,0 l/m 10,8 km/h (2 Bft) 0 min 7,2 km/h (2 Bft)
03.04.2010 08:34 14,6 C 6,0 C 0,3 UV-I 0,0 C 51 % 89 % 0 % 1007,9 hPa 0,0 l/m 10,4 km/h (2 Bft) 0 min 6,5 km/h (2 Bft)
03.04.2010 08:36 14,6 C 6,0 C 0,5 UV-I 0,1 C 51 % 89 % 3 % 1007,9 hPa 0,0 l/m 10,0 km/h (2 Bft) 0 min 6,5 km/h (2 Bft)
03.04.2010 08:38 14,6 C 6,0 C 0,5 UV-I 0,1 C 51 % 89 % 3 % 1007,9 hPa 0,0 l/m 10,0 km/h (2 Bft) 0 min 7,5 km/h (2 Bft)
03.04.2010 08:40 14,6 C 6,1 C 0,4 UV-I 0,0 C 51 % 90 % 0 % 1007,9 hPa 0,0 l/m 10,4 km/h (2 Bft) 0 min 7,5 km/h (2 Bft)
03.04.2010 08:42 14,6 C 6,1 C 0,4 UV-I 0,0 C 51 % 89 % 0 % 1007,9 hPa 0,0 l/m 10,0 km/h (2 Bft) 0 min 7,2 km/h (2 Bft)
03.04.2010 08:46 14,6 C 6,1 C 0,3 UV-I 0,0 C 51 % 89 % 0 % 1007,9 hPa 0,0 l/m 10,4 km/h (2 Bft) 0 min 7,7 km/h (2 Bft)
03.04.2010 08:48 14,7 C 6,1 C 0,3 UV-I 0,0 C 51 % 89 % 0 % 1007,9 hPa 0,0 l/m 10,4 km/h (2 Bft) 0 min 11,5 km/h (2 Bft)
03.04.2010 08:50 14,7 C 6,2 C 0,5 UV-I 0,0 C 51 % 89 % 0 % 1007,9 hPa 0,0 l/m 10,4 km/h (2 Bft) 0 min 5,5 km/h (1 Bft)
03.04.2010 08:52 14,6 C 6,2 C 0,5 UV-I 0,0 C 51 % 89 % 0 % 1008,1 hPa 0,0 l/m 10,4 km/h (2 Bft) 0 min 7,0 km/h (2 Bft)
03.04.2010 08:54 14,8 C 6,2 C 0,5 UV-I 0,1 C 51 % 89 % 3 % 1008,1 hPa 0,0 l/m 10,4 km/h (2 Bft) 0 min 7,9 km/h (2 Bft)
03.04.2010 08:56 14,8 C 6,3 C 0,7 UV-I 0,1 C 51 % 89 % 3 % 1008,1 hPa 0,0 l/m 10,0 km/h (2 Bft) 0 min 7,5 km/h (2 Bft)
03.04.2010 08:58 14,6 C 6,3 C 0,7 UV-I 0,1 C 51 % 89 % 3 % 1008,1 hPa 0,0 l/m 10,8 km/h (2 Bft) 0 min 5,8 km/h (2 Bft)
03.04.2010 09:00 14,6 C 6,4 C 0,8 UV-I 0,3 C 51 % 89 % 9 % 1008,1 hPa 0,0 l/m 10,0 km/h (2 Bft) 0 min 7,2 km/h (2 Bft)
03.04.2010 09:02 14,8 C 6,5 C 0,8 UV-I 0,4 C 51 % 89 % 11 % 1008,1 hPa 0,0 l/m 10,4 km/h (2 Bft) 0 min 7,2 km/h (2 Bft)
03.04.2010 09:04 14,8 C 6,4 C 0,8 UV-I 1,0 C 51 % 89 % 29 % 1008,1 hPa 0,0 l/m 8,8 km/h (2 Bft) 0 min 6,0 km/h (2 Bft)
03.04.2010 09:06 14,6 C 6,5 C 0,9 UV-I 1,0 C 51 % 89 % 29 % 1008,1 hPa 0,0 l/m 9,6 km/h (2 Bft) 0 min 7,9 km/h (2 Bft)
03.04.2010 09:08 14,8 C 6,7 C 0,9 UV-I 1,1 C 51 % 89 % 31 % 1008,1 hPa 0,0 l/m 9,2 km/h (2 Bft) 0 min 5,1 km/h (1 Bft)
03.04.2010 09:12 14,8 C 6,8 C 0,9 UV-I 1,4 C 51 % 88 % 40 % 1007,9 hPa 0,0 l/m 8,0 km/h (2 Bft) 0 min 12,5 km/h (3 Bft)
03.04.2010 09:14 14,8 C 6,8 C 0,9 UV-I 1,5 C 51 % 88 % 43 % 1007,9 hPa 0,0 l/m 9,6 km/h (2 Bft) 0 min 20,5 km/h (4 Bft)
03.04.2010 09:16 14,8 C 6,9 C 0,8 UV-I 1,3 C 51 % 88 % 37 % 1007,9 hPa 0,0 l/m 10,8 km/h (2 Bft) 0 min 9,4 km/h (2 Bft)
03.04.2010 09:18 14,8 C 6,9 C 0,8 UV-I 1,3 C 51 % 88 % 37 % 1007,9 hPa 0,0 l/m 10,4 km/h (2 Bft) 0 min 7,0 km/h (2 Bft)
03.04.2010 09:20 14,8 C 7,1 C 0,7 UV-I 0,8 C 51 % 88 % 23 % 1007,9 hPa 0,0 l/m 12,4 km/h (3 Bft) 0 min 18,5 km/h (3 Bft)
03.04.2010 09:22 14,8 C 7,0 C 0,7 UV-I 1,0 C 51 % 88 % 29 % 1007,9 hPa 0,0 l/m 12,8 km/h (3 Bft) 0 min 4,8 km/h (1 Bft)
03.04.2010 09:24 14,8 C 7,1 C 0,7 UV-I 1,1 C 51 % 87 % 31 % 1007,9 hPa 0,0 l/m 12,0 km/h (2 Bft) 0 min 17,3 km/h (3 Bft)
03.04.2010 09:26 14,8 C 7,2 C 1,0 UV-I 1,2 C 51 % 87 % 34 % 1007,9 hPa 0,0 l/m 11,6 km/h (2 Bft) 0 min 9,6 km/h (2 Bft)
03.04.2010 09:28 14,8 C 7,2 C 1,0 UV-I 1,3 C 51 % 87 % 37 % 1007,9 hPa 0,0 l/m 10,8 km/h (2 Bft) 0 min 4,8 km/h (1 Bft)
03.04.2010 09:30 14,8 C 7,3 C 1,1 UV-I 1,2 C 51 % 86 % 34 % 1007,9 hPa 0,0 l/m 10,8 km/h (2 Bft) 0 min 7,2 km/h (2 Bft)
03.04.2010 09:32 14,8 C 7,3 C 1,1 UV-I 1,4 C 51 % 86 % 40 % 1008,1 hPa 0,0 l/m 9,2 km/h (2 Bft) 0 min 7,0 km/h (2 Bft)
03.04.2010 09:34 14,8 C 7,3 C 1,1 UV-I 1,4 C 51 % 86 % 40 % 1008,1 hPa 0,0 l/m 9,6 km/h (2 Bft) 0 min 7,5 km/h (2 Bft)
03.04.2010 09:36 14,8 C 7,3 C 1,2 UV-I 1,5 C 51 % 86 % 43 % 1008,1 hPa 0,0 l/m 9,6 km/h (2 Bft) 0 min 11,8 km/h (2 Bft)
03.04.2010 09:38 14,8 C 7,5 C 1,2 UV-I 1,3 C 51 % 86 % 37 % 1008,1 hPa 0,0 l/m 9,6 km/h (2 Bft) 0 min 8,2 km/h (2 Bft)
03.04.2010 09:40 14,8 C 7,5 C 1,4 UV-I 1,3 C 51 % 86 % 37 % 1008,1 hPa 0,0 l/m 10,4 km/h (2 Bft) 0 min 13,7 km/h (3 Bft)
03.04.2010 09:42 14,8 C 7,5 C 1,4 UV-I 1,3 C 51 % 85 % 37 % 1008,1 hPa 0,0 l/m 11,2 km/h (2 Bft) 0 min 7,5 km/h (2 Bft)
03.04.2010 09:44 14,8 C 7,6 C 1,4 UV-I 1,2 C 51 % 85 % 34 % 1008,1 hPa 0,0 l/m 11,2 km/h (2 Bft) 0 min 7,5 km/h (2 Bft)
03.04.2010 09:46 14,8 C 7,6 C 1,3 UV-I 1,5 C 51 % 85 % 43 % 1008,1 hPa 0,0 l/m 10,8 km/h (2 Bft) 0 min 6,5 km/h (2 Bft)
03.04.2010 09:48 14,8 C 7,7 C 1,3 UV-I 1,5 C 51 % 85 % 43 % 1008,1 hPa 0,0 l/m 10,4 km/h (2 Bft) 0 min 14,4 km/h (3 Bft)
03.04.2010 09:52 14,8 C 7,7 C 1,2 UV-I 1,5 C 51 % 84 % 43 % 1008,0 hPa 0,0 l/m 10,4 km/h (2 Bft) 0 min 8,7 km/h (2 Bft)
03.04.2010 09:54 14,8 C 7,9 C 1,2 UV-I 1,2 C 51 % 84 % 34 % 1008,0 hPa 0,0 l/m 11,2 km/h (2 Bft) 0 min 19,0 km/h (3 Bft)
03.04.2010 09:56 14,8 C 7,9 C 1,4 UV-I 1,3 C 51 % 84 % 37 % 1008,0 hPa 0,0 l/m 11,6 km/h (2 Bft) 0 min 7,5 km/h (2 Bft)
03.04.2010 09:58 14,8 C 7,9 C 1,4 UV-I 1,2 C 51 % 83 % 34 % 1008,0 hPa 0,0 l/m 12,0 km/h (2 Bft) 0 min 7,2 km/h (2 Bft)
03.04.2010 10:00 14,8 C 7,9 C 1,6 UV-I 1,4 C 51 % 83 % 40 % 1008,0 hPa 0,0 l/m 11,6 km/h (2 Bft) 0 min 9,6 km/h (2 Bft)
03.04.2010 10:02 14,8 C 8,1 C 1,6 UV-I 1,3 C 51 % 83 % 37 % 1008,0 hPa 0,0 l/m 11,2 km/h (2 Bft) 0 min 7,2 km/h (2 Bft)
03.04.2010 10:04 14,8 C 8,1 C 1,6 UV-I 1,4 C 51 % 83 % 40 % 1008,0 hPa 0,0 l/m 12,4 km/h (3 Bft) 0 min 6,0 km/h (2 Bft)
03.04.2010 10:06 14,8 C 8,1 C 1,8 UV-I 1,6 C 51 % 83 % 46 % 1008,0 hPa 0,0 l/m 12,0 km/h (2 Bft) 0 min 16,6 km/h (3 Bft)
03.04.2010 10:08 14,8 C 8,2 C 1,8 UV-I 1,5 C 51 % 82 % 43 % 1008,0 hPa 0,0 l/m 11,6 km/h (2 Bft) 0 min 7,9 km/h (2 Bft)
03.04.2010 10:10 14,8 C 8,3 C 2,0 UV-I 1,6 C 51 % 82 % 46 % 1008,0 hPa 0,0 l/m 11,2 km/h (2 Bft) 0 min 7,2 km/h (2 Bft)
03.04.2010 10:12 14,8 C 8,3 C 2,0 UV-I 1,9 C 51 % 82 % 54 % 1008,1 hPa 0,0 l/m 10,8 km/h (2 Bft) 0 min 6,5 km/h (2 Bft)
03.04.2010 10:14 14,9 C 8,3 C 2,0 UV-I 1,9 C 51 % 82 % 54 % 1008,1 hPa 0,0 l/m 10,4 km/h (2 Bft) 0 min 9,1 km/h (2 Bft)
03.04.2010 10:16 14,8 C 8,3 C 2,1 UV-I 1,8 C 51 % 82 % 51 % 1008,1 hPa 0,0 l/m 10,8 km/h (2 Bft) 0 min 5,8 km/h (2 Bft)
03.04.2010 10:18 14,9 C 8,4 C 2,1 UV-I 1,7 C 51 % 82 % 49 % 1008,1 hPa 0,0 l/m 10,8 km/h (2 Bft) 0 min 11,5 km/h (2 Bft)
03.04.2010 10:20 14,9 C 8,5 C 2,1 UV-I 1,2 C 51 % 82 % 34 % 1008,1 hPa 0,0 l/m 12,8 km/h (3 Bft) 0 min 15,6 km/h (3 Bft)
03.04.2010 10:22 14,9 C 8,4 C 2,1 UV-I 1,2 C 51 % 81 % 34 % 1008,1 hPa 0,0 l/m 14,1 km/h (3 Bft) 0 min 16,1 km/h (3 Bft)
03.04.2010 10:24 14,9 C 8,5 C 2,1 UV-I 0,9 C 51 % 81 % 26 % 1008,1 hPa 0,0 l/m 15,3 km/h (3 Bft) 0 min 7,2 km/h (2 Bft)
03.04.2010 10:26 14,9 C 8,5 C 2,3 UV-I 1,1 C 51 % 81 % 31 % 1008,1 hPa 0,0 l/m 14,9 km/h (3 Bft) 0 min 6,7 km/h (2 Bft)
03.04.2010 10:28 14,9 C 8,7 C 2,3 UV-I 1,0 C 51 % 81 % 29 % 1008,1 hPa 0,0 l/m 15,3 km/h (3 Bft) 0 min 9,1 km/h (2 Bft)
03.04.2010 10:30 14,8 C 8,7 C 1,7 UV-I 1,1 C 51 % 81 % 31 % 1008,1 hPa 0,0 l/m 13,7 km/h (3 Bft) 0 min 12,0 km/h (2 Bft)
03.04.2010 10:32 14,9 C 8,7 C 1,7 UV-I 1,2 C 51 % 81 % 34 % 1007,9 hPa 0,0 l/m 13,7 km/h (3 Bft) 0 min 5,8 km/h (2 Bft)
03.04.2010 10:36 14,8 C 8,9 C 1,7 UV-I 1,0 C 51 % 80 % 29 % 1007,9 hPa 0,0 l/m 14,1 km/h (3 Bft) 0 min 14,9 km/h (3 Bft)
03.04.2010 10:38 14,8 C 8,9 C 1,7 UV-I 0,8 C 51 % 79 % 23 % 1007,9 hPa 0,0 l/m 14,9 km/h (3 Bft) 0 min 10,1 km/h (2 Bft)
03.04.2010 10:40 14,8 C 8,9 C 1,1 UV-I 0,7 C 51 % 79 % 20 % 1007,9 hPa 0,0 l/m 15,7 km/h (3 Bft) 0 min 11,3 km/h (2 Bft)
03.04.2010 10:42 14,8 C 8,9 C 1,1 UV-I 0,7 C 51 % 79 % 20 % 1007,9 hPa 0,0 l/m 15,7 km/h (3 Bft) 0 min 14,7 km/h (3 Bft)
03.04.2010 10:44 15,0 C 8,9 C 1,1 UV-I 0,7 C 51 % 79 % 20 % 1007,9 hPa 0,0 l/m 15,7 km/h (3 Bft) 0 min 12,3 km/h (3 Bft)
03.04.2010 10:46 15,0 C 9,1 C 1,5 UV-I 0,6 C 51 % 79 % 17 % 1007,9 hPa 0,0 l/m 15,3 km/h (3 Bft) 0 min 8,9 km/h (2 Bft)
03.04.2010 10:48 14,8 C 9,1 C 1,5 UV-I 0,7 C 51 % 79 % 20 % 1007,9 hPa 0,0 l/m 13,7 km/h (3 Bft) 0 min 18,0 km/h (3 Bft)
03.04.2010 10:50 15,0 C 9,1 C 1,6 UV-I 0,7 C 51 % 79 % 20 % 1007,9 hPa 0,0 l/m 14,1 km/h (3 Bft) 0 min 11,8 km/h (2 Bft)
03.04.2010 10:52 15,0 C 9,2 C 1,6 UV-I 0,6 C 51 % 78 % 17 % 1007,7 hPa 0,0 l/m 14,5 km/h (3 Bft) 0 min 17,1 km/h (3 Bft)
03.04.2010 10:54 15,0 C 9,2 C 1,6 UV-I 0,6 C 51 % 78 % 17 % 1007,7 hPa 0,0 l/m 14,5 km/h (3 Bft) 0 min 11,5 km/h (2 Bft)
03.04.2010 10:56 15,0 C 9,2 C 1,5 UV-I 0,6 C 51 % 78 % 17 % 1007,7 hPa 0,0 l/m 14,5 km/h (3 Bft) 0 min 9,9 km/h (2 Bft)
03.04.2010 10:58 15,0 C 9,2 C 1,5 UV-I 0,4 C 51 % 78 % 11 % 1007,7 hPa 0,0 l/m 16,1 km/h (3 Bft) 0 min 12,8 km/h (3 Bft)
03.04.2010 11:00 15,0 C 9,2 C 0,8 UV-I 0,5 C 50 % 78 % 14 % 1007,7 hPa 0,0 l/m 15,3 km/h (3 Bft) 0 min 3,8 km/h (1 Bft)
03.04.2010 11:02 15,0 C 9,3 C 0,8 UV-I 0,4 C 50 % 78 % 11 % 1007,7 hPa 0,0 l/m 14,9 km/h (3 Bft) 0 min 9,6 km/h (2 Bft)
03.04.2010 11:04 15,0 C 9,4 C 0,8 UV-I 0,4 C 50 % 78 % 11 % 1007,7 hPa 0,0 l/m 12,8 km/h (3 Bft) 0 min 8,7 km/h (2 Bft)
03.04.2010 11:06 15,0 C 9,3 C 0,5 UV-I 0,4 C 50 % 78 % 11 % 1007,7 hPa 0,0 l/m 13,3 km/h (3 Bft) 0 min 14,2 km/h (3 Bft)
03.04.2010 11:08 15,0 C 9,3 C 0,5 UV-I 0,3 C 50 % 78 % 9 % 1007,7 hPa 0,0 l/m 11,6 km/h (2 Bft) 0 min 5,5 km/h (1 Bft)
03.04.2010 11:10 15,0 C 9,3 C 0,6 UV-I 0,3 C 50 % 78 % 9 % 1007,7 hPa 0,0 l/m 10,4 km/h (2 Bft) 0 min 5,8 km/h (2 Bft)
03.04.2010 11:12 15,0 C 9,3 C 0,6 UV-I 0,1 C 50 % 78 % 3 % 1007,8 hPa 0,0 l/m 10,4 km/h (2 Bft) 0 min 5,1 km/h (1 Bft)
03.04.2010 11:16 15,0 C 9,5 C 0,6 UV-I 0,0 C 51 % 78 % 0 % 1007,8 hPa 0,0 l/m 10,8 km/h (2 Bft) 0 min 15,4 km/h (3 Bft)
03.04.2010 11:18 15,0 C 9,4 C 0,6 UV-I 0,0 C 51 % 78 % 0 % 1007,8 hPa 0,0 l/m 11,2 km/h (2 Bft) 0 min 20,7 km/h (4 Bft)
03.04.2010 11:20 15,0 C 9,4 C 0,8 UV-I 0,0 C 51 % 78 % 0 % 1007,8 hPa 0,0 l/m 12,8 km/h (3 Bft) 0 min 9,9 km/h (2 Bft)
03.04.2010 11:22 15,0 C 9,5 C 0,8 UV-I 0,0 C 51 % 78 % 0 % 1007,8 hPa 0,0 l/m 13,3 km/h (3 Bft) 0 min 7,9 km/h (2 Bft)
03.04.2010 11:24 14,9 C 9,5 C 0,8 UV-I 0,0 C 51 % 78 % 0 % 1007,8 hPa 0,0 l/m 13,7 km/h (3 Bft) 0 min 12,5 km/h (3 Bft)
03.04.2010 11:26 15,0 C 9,5 C 1,0 UV-I 0,0 C 51 % 78 % 0 % 1007,8 hPa 0,0 l/m 12,8 km/h (3 Bft) 0 min 4,1 km/h (1 Bft)
03.04.2010 11:28 15,0 C 9,5 C 1,0 UV-I 0,0 C 51 % 78 % 0 % 1007,8 hPa 0,0 l/m 12,4 km/h (3 Bft) 0 min 13,5 km/h (3 Bft)
03.04.2010 11:30 15,0 C 9,4 C 1,2 UV-I 0,0 C 51 % 78 % 0 % 1007,8 hPa 0,0 l/m 12,4 km/h (3 Bft) 0 min 8,2 km/h (2 Bft)
03.04.2010 11:32 15,0 C 9,5 C 1,2 UV-I 0,0 C 51 % 78 % 0 % 1007,6 hPa 0,0 l/m 12,0 km/h (2 Bft) 0 min 7,9 km/h (2 Bft)
03.04.2010 11:34 15,0 C 9,5 C 1,2 UV-I 0,0 C 51 % 78 % 0 % 1007,6 hPa 0,0 l/m 12,4 km/h (3 Bft) 0 min 8,4 km/h (2 Bft)
03.04.2010 11:36 15,0 C 9,5 C 0,7 UV-I 0,0 C 51 % 78 % 0 % 1007,6 hPa 0,0 l/m 12,0 km/h (2 Bft) 0 min 13,7 km/h (3 Bft)
03.04.2010 11:38 14,9 C 9,5 C 0,7 UV-I 0,0 C 51 % 79 % 0 % 1007,6 hPa 0,1 l/m 12,4 km/h (3 Bft) 0 min 6,0 km/h (2 Bft)
03.04.2010 11:40 14,9 C 9,5 C 0,6 UV-I 0,0 C 51 % 79 % 0 % 1007,6 hPa 0,0 l/m 11,2 km/h (2 Bft) 0 min 3,1 km/h (1 Bft)
03.04.2010 11:42 14,9 C 9,6 C 0,6 UV-I 0,0 C 51 % 79 % 0 % 1007,6 hPa 0,0 l/m 10,8 km/h (2 Bft) 0 min 8,7 km/h (2 Bft)
03.04.2010 11:44 14,9 C 9,5 C 0,6 UV-I 0,0 C 51 % 79 % 0 % 1007,6 hPa 0,0 l/m 10,8 km/h (2 Bft) 0 min 13,7 km/h (3 Bft)
03.04.2010 11:46 14,9 C 9,5 C 0,6 UV-I 0,0 C 51 % 79 % 0 % 1007,6 hPa 0,0 l/m 11,6 km/h (2 Bft) 0 min 12,8 km/h (3 Bft)
03.04.2010 11:52 14,9 C 9,5 C 1,1 UV-I 0,0 C 51 % 80 % 0 % 1007,6 hPa 0,1 l/m 15,3 km/h (3 Bft) 0 min 17,8 km/h (3 Bft)
03.04.2010 11:56 15,1 C 9,4 C 1,7 UV-I 0,0 C 51 % 81 % 0 % 1007,6 hPa 0,0 l/m 12,4 km/h (3 Bft) 0 min 4,8 km/h (1 Bft)
03.04.2010 11:58 15,1 C 9,5 C 1,7 UV-I 0,0 C 51 % 81 % 0 % 1007,6 hPa 0,0 l/m 11,6 km/h (2 Bft) 0 min 8,9 km/h (2 Bft)
03.04.2010 12:00 15,1 C 9,5 C 1,5 UV-I 0,0 C 51 % 81 % 0 % 1007,6 hPa 0,0 l/m 9,6 km/h (2 Bft) 0 min 4,1 km/h (1 Bft)
03.04.2010 12:02 15,1 C 9,5 C 1,5 UV-I 0,0 C 51 % 81 % 0 % 1007,6 hPa 0,0 l/m 8,0 km/h (2 Bft) 0 min 11,1 km/h (2 Bft)
03.04.2010 12:04 15,1 C 9,5 C 1,5 UV-I 0,0 C 51 % 81 % 0 % 1007,6 hPa 0,0 l/m 7,6 km/h (2 Bft) 0 min 10,1 km/h (2 Bft)
03.04.2010 12:06 15,1 C 9,5 C 1,5 UV-I 0,0 C 51 % 81 % 0 % 1007,6 hPa 0,0 l/m 9,6 km/h (2 Bft) 0 min 6,3 km/h (2 Bft)
03.04.2010 12:12 15,1 C 9,5 C 1,0 UV-I 0,0 C 51 % 82 % 0 % 1007,5 hPa 0,0 l/m 9,6 km/h (2 Bft) 0 min 5,1 km/h (1 Bft)
03.04.2010 12:14 15,1 C 9,6 C 1,0 UV-I 0,0 C 51 % 82 % 0 % 1007,5 hPa 0,0 l/m 8,0 km/h (2 Bft) 0 min 4,3 km/h (1 Bft)
03.04.2010 12:16 15,1 C 9,5 C 1,3 UV-I 0,0 C 51 % 82 % 0 % 1007,5 hPa 0,0 l/m 6,0 km/h (2 Bft) 0 min 0,0 km/h (0 Bft)
03.04.2010 12:18 15,1 C 9,5 C 1,3 UV-I 0,0 C 51 % 82 % 0 % 1007,5 hPa 0,0 l/m 5,6 km/h (1 Bft) 0 min 2,9 km/h (1 Bft)
03.04.2010 12:20 15,1 C 9,5 C 1,2 UV-I 0,0 C 51 % 82 % 0 % 1007,5 hPa 0,0 l/m 4,8 km/h (1 Bft) 0 min 5,8 km/h (2 Bft)
03.04.2010 12:22 15,1 C 9,5 C 1,2 UV-I 0,0 C 51 % 82 % 0 % 1007,5 hPa 0,0 l/m 4,8 km/h (1 Bft) 0 min 11,5 km/h (2 Bft)
03.04.2010 12:24 15,1 C 9,6 C 1,2 UV-I 0,0 C 51 % 82 % 0 % 1007,5 hPa 0,0 l/m 4,8 km/h (1 Bft) 0 min 2,9 km/h (1 Bft)
03.04.2010 12:26 15,1 C 9,5 C 0,6 UV-I 0,0 C 51 % 82 % 0 % 1007,5 hPa 0,0 l/m 4,8 km/h (1 Bft) 0 min 0,0 km/h (0 Bft)
03.04.2010 12:28 15,1 C 9,5 C 0,6 UV-I 0,0 C 51 % 82 % 0 % 1007,5 hPa 0,0 l/m 4,8 km/h (1 Bft) 0 min 3,4 km/h (1 Bft)
03.04.2010 12:30 15,1 C 9,5 C 0,2 UV-I 0,0 C 51 % 82 % 0 % 1007,5 hPa 0,0 l/m 5,2 km/h (1 Bft) 0 min 5,1 km/h (1 Bft)
03.04.2010 12:32 15,1 C 9,5 C 0,2 UV-I 0,0 C 51 % 82 % 0 % 1007,5 hPa 0,0 l/m 5,2 km/h (1 Bft) 0 min 4,1 km/h (1 Bft)
03.04.2010 12:34 15,1 C 9,4 C 0,2 UV-I 0,0 C 51 % 82 % 0 % 1007,5 hPa 0,0 l/m 4,4 km/h (1 Bft) 0 min 7,0 km/h (2 Bft)
03.04.2010 12:36 15,1 C 9,4 C 0,2 UV-I 0,0 C 52 % 82 % 0 % 1007,5 hPa 0,0 l/m 4,4 km/h (1 Bft) 0 min 0,0 km/h (0 Bft)
03.04.2010 12:38 15,1 C 9,4 C 0,2 UV-I 0,0 C 51 % 82 % 0 % 1007,5 hPa 0,0 l/m 5,6 km/h (1 Bft) 0 min 6,5 km/h (2 Bft)
03.04.2010 12:42 15,1 C 9,4 C 0,2 UV-I 0,0 C 52 % 82 % 0 % 1007,5 hPa 0,0 l/m 6,0 km/h (2 Bft) 0 min 5,1 km/h (1 Bft)
03.04.2010 12:44 15,1 C 9,5 C 0,2 UV-I 0,0 C 52 % 82 % 0 % 1007,5 hPa 0,0 l/m 7,2 km/h (2 Bft) 0 min 4,1 km/h (1 Bft)
03.04.2010 12:46 15,1 C 9,4 C 0,2 UV-I 0,0 C 52 % 82 % 0 % 1007,5 hPa 0,0 l/m 6,8 km/h (2 Bft) 0 min 4,6 km/h (1 Bft)
03.04.2010 12:48 15,1 C 9,5 C 0,2 UV-I 0,0 C 52 % 82 % 0 % 1007,5 hPa 0,0 l/m 6,0 km/h (2 Bft) 0 min 0,0 km/h (0 Bft)
03.04.2010 12:50 15,1 C 9,4 C 0,2 UV-I 0,0 C 52 % 82 % 0 % 1007,5 hPa 0,0 l/m 5,6 km/h (1 Bft) 0 min 3,4 km/h (1 Bft)
03.04.2010 12:52 15,1 C 9,5 C 0,2 UV-I 0,0 C 52 % 82 % 0 % 1007,4 hPa 0,0 l/m 5,2 km/h (1 Bft) 0 min 4,6 km/h (1 Bft)
03.04.2010 12:54 15,1 C 9,4 C 0,2 UV-I 0,0 C 52 % 82 % 0 % 1007,4 hPa 0,0 l/m 3,6 km/h (1 Bft) 0 min 2,9 km/h (1 Bft)
03.04.2010 12:56 15,1 C 9,5 C 0,2 UV-I 0,0 C 52 % 82 % 0 % 1007,4 hPa 0,0 l/m 3,6 km/h (1 Bft) 0 min 4,8 km/h (1 Bft)
03.04.2010 12:58 15,1 C 9,4 C 0,2 UV-I 0,0 C 52 % 82 % 0 % 1007,4 hPa 0,0 l/m 4,8 km/h (1 Bft) 0 min 8,7 km/h (2 Bft)
03.04.2010 13:00 15,1 C 9,5 C 0,6 UV-I 0,0 C 52 % 82 % 0 % 1007,4 hPa 0,0 l/m 5,2 km/h (1 Bft) 0 min 4,8 km/h (1 Bft)
03.04.2010 13:02 15,1 C 9,6 C 0,6 UV-I 0,0 C 52 % 82 % 0 % 1007,4 hPa 0,0 l/m 5,6 km/h (1 Bft) 0 min 3,1 km/h (1 Bft)
03.04.2010 13:04 15,1 C 9,5 C 0,6 UV-I 0,0 C 52 % 82 % 0 % 1007,4 hPa 0,0 l/m 5,2 km/h (1 Bft) 0 min 0,0 km/h (0 Bft)
03.04.2010 13:06 15,1 C 9,5 C 0,7 UV-I 0,1 C 52 % 82 % 3 % 1007,4 hPa 0,0 l/m 5,2 km/h (1 Bft) 0 min 5,8 km/h (2 Bft)
03.04.2010 13:08 15,1 C 9,6 C 0,7 UV-I 0,1 C 52 % 82 % 3 % 1007,4 hPa 0,0 l/m 5,6 km/h (1 Bft) 0 min 9,9 km/h (2 Bft)
03.04.2010 13:10 15,1 C 9,6 C 0,8 UV-I 0,2 C 52 % 82 % 6 % 1007,4 hPa 0,0 l/m 5,6 km/h (1 Bft) 0 min 5,3 km/h (1 Bft)
03.04.2010 13:12 15,1 C 9,6 C 0,8 UV-I 0,2 C 52 % 82 % 6 % 1007,2 hPa 0,0 l/m 5,6 km/h (1 Bft) 0 min 3,4 km/h (1 Bft)
03.04.2010 13:14 15,1 C 9,7 C 0,8 UV-I 0,3 C 52 % 82 % 9 % 1007,2 hPa 0,0 l/m 6,8 km/h (2 Bft) 0 min 13,2 km/h (3 Bft)
03.04.2010 13:16 15,1 C 9,6 C 0,9 UV-I 0,4 C 52 % 82 % 11 % 1007,2 hPa 0,0 l/m 6,8 km/h (2 Bft) 0 min 2,6 km/h (1 Bft)
03.04.2010 13:18 15,1 C 9,6 C 0,9 UV-I 0,3 C 52 % 82 % 9 % 1007,2 hPa 0,1 l/m 6,4 km/h (2 Bft) 0 min 4,8 km/h (1 Bft)
03.04.2010 13:20 15,1 C 9,7 C 0,7 UV-I 0,1 C 52 % 82 % 3 % 1007,2 hPa 0,0 l/m 6,0 km/h (2 Bft) 0 min 3,4 km/h (1 Bft)
03.04.2010 13:22 15,1 C 9,7 C 0,7 UV-I 0,0 C 52 % 82 % 0 % 1007,2 hPa 0,0 l/m 6,4 km/h (2 Bft) 0 min 5,1 km/h (1 Bft)
03.04.2010 13:24 15,1 C 9,7 C 0,7 UV-I 0,0 C 52 % 82 % 0 % 1007,2 hPa 0,1 l/m 6,8 km/h (2 Bft) 0 min 4,3 km/h (1 Bft)
03.04.2010 13:26 15,1 C 9,7 C 0,7 UV-I 0,0 C 52 % 83 % 0 % 1007,2 hPa 0,0 l/m 6,4 km/h (2 Bft) 0 min 5,1 km/h (1 Bft)
03.04.2010 13:30 15,1 C 9,7 C 0,2 UV-I 0,0 C 52 % 83 % 0 % 1007,2 hPa 0,0 l/m 5,6 km/h (1 Bft) 0 min 2,4 km/h (1 Bft)
03.04.2010 13:32 15,1 C 9,7 C 0,2 UV-I 0,0 C 52 % 83 % 0 % 1007,2 hPa 0,0 l/m 4,8 km/h (1 Bft) 0 min 0,0 km/h (0 Bft)
03.04.2010 13:34 15,1 C 9,7 C 0,2 UV-I 0,0 C 52 % 84 % 0 % 1007,2 hPa 0,0 l/m 4,4 km/h (1 Bft) 0 min 4,1 km/h (1 Bft)
03.04.2010 13:36 15,2 C 9,7 C 0,4 UV-I 0,0 C 52 % 84 % 0 % 1007,2 hPa 0,1 l/m 4,0 km/h (1 Bft) 0 min 0,0 km/h (0 Bft)
03.04.2010 13:38 15,1 C 9,7 C 0,4 UV-I 0,0 C 52 % 84 % 0 % 1007,2 hPa 0,0 l/m 2,8 km/h (1 Bft) 0 min 0,0 km/h (0 Bft)
03.04.2010 13:40 15,1 C 9,7 C 1,1 UV-I 0,0 C 52 % 84 % 0 % 1007,2 hPa 0,1 l/m 2,4 km/h (1 Bft) 0 min 0,0 km/h (0 Bft)
03.04.2010 13:44 15,2 C 9,8 C 1,1 UV-I 0,0 C 52 % 84 % 0 % 1007,2 hPa 0,0 l/m 1,6 km/h (1 Bft) 0 min 2,4 km/h (1 Bft)
03.04.2010 13:46 15,1 C 9,9 C 1,4 UV-I 0,0 C 52 % 84 % 0 % 1007,2 hPa 0,0 l/m 0,8 km/h (0 Bft) 0 min 0,0 km/h (0 Bft)
03.04.2010 13:48 15,2 C 9,9 C 1,4 UV-I 0,0 C 52 % 84 % 0 % 1007,2 hPa 0,0 l/m 0,8 km/h (0 Bft) 0 min 0,0 km/h (0 Bft)
03.04.2010 13:50 15,2 C 9,9 C 1,8 UV-I 0,0 C 52 % 84 % 0 % 1007,2 hPa 0,0 l/m 0,8 km/h (0 Bft) 0 min 0,0 km/h (0 Bft)
03.04.2010 13:52 15,2 C 9,9 C 1,8 UV-I 0,2 C 52 % 84 % 6 % 1006,9 hPa 0,0 l/m 0,8 km/h (0 Bft) 0 min 0,0 km/h (0 Bft)
03.04.2010 13:56 15,2 C 10,0 C 1,8 UV-I 0,3 C 52 % 84 % 9 % 1006,9 hPa 0,0 l/m 2,4 km/h (1 Bft) 0 min 5,3 km/h (1 Bft)
03.04.2010 13:58 15,2 C 10,0 C 1,8 UV-I 0,2 C 52 % 85 % 6 % 1006,9 hPa 0,0 l/m 3,2 km/h (1 Bft) 0 min 4,6 km/h (1 Bft)
03.04.2010 14:00 15,2 C 10,0 C 0,7 UV-I 0,2 C 52 % 84 % 6 % 1006,9 hPa 0,0 l/m 4,4 km/h (1 Bft) 0 min 3,1 km/h (1 Bft)
03.04.2010 14:02 15,2 C 10,0 C 0,7 UV-I 0,1 C 52 % 85 % 3 % 1006,9 hPa 0,0 l/m 4,8 km/h (1 Bft) 0 min 0,0 km/h (0 Bft)
03.04.2010 14:04 15,1 C 10,0 C 0,7 UV-I 0,0 C 52 % 84 % 0 % 1006,9 hPa 0,0 l/m 6,8 km/h (2 Bft) 0 min 6,5 km/h (2 Bft)
03.04.2010 14:06 15,1 C 10,1 C 0,4 UV-I 0,0 C 52 % 84 % 0 % 1006,9 hPa 0,1 l/m 6,0 km/h (2 Bft) 0 min 0,0 km/h (0 Bft)
03.04.2010 14:08 15,1 C 10,1 C 0,4 UV-I 0,0 C 52 % 84 % 0 % 1006,9 hPa 0,0 l/m 5,2 km/h (1 Bft) 0 min 3,4 km/h (1 Bft)
03.04.2010 14:10 15,1 C 10,1 C 1,1 UV-I 0,0 C 52 % 84 % 0 % 1006,9 hPa 0,0 l/m 5,2 km/h (1 Bft) 0 min 3,8 km/h (1 Bft)
03.04.2010 14:12 15,1 C 10,1 C 1,1 UV-I 0,0 C 52 % 83 % 0 % 1007,3 hPa 0,0 l/m 4,8 km/h (1 Bft) 0 min 7,0 km/h (2 Bft)
03.04.2010 14:16 15,1 C 10,3 C 0,5 UV-I 0,0 C 52 % 84 % 0 % 1007,3 hPa 0,0 l/m 4,0 km/h (1 Bft) 0 min 6,0 km/h (2 Bft)
03.04.2010 14:18 15,1 C 10,2 C 0,5 UV-I 0,0 C 52 % 84 % 0 % 1007,3 hPa 0,0 l/m 6,4 km/h (2 Bft) 0 min 12,0 km/h (2 Bft)
03.04.2010 14:20 15,1 C 10,2 C 1,4 UV-I 0,0 C 52 % 82 % 0 % 1007,3 hPa 0,0 l/m 7,2 km/h (2 Bft) 0 min 5,8 km/h (2 Bft)
03.04.2010 14:24 15,3 C 10,3 C 1,4 UV-I 0,0 C 52 % 82 % 0 % 1007,3 hPa 0,0 l/m 9,2 km/h (2 Bft) 0 min 9,1 km/h (2 Bft)
03.04.2010 14:26 15,2 C 10,3 C 1,1 UV-I 0,0 C 52 % 82 % 0 % 1007,3 hPa 0,0 l/m 11,2 km/h (2 Bft) 0 min 11,1 km/h (2 Bft)
03.04.2010 14:28 15,3 C 10,3 C 1,1 UV-I 0,0 C 52 % 82 % 0 % 1007,3 hPa 0,0 l/m 11,6 km/h (2 Bft) 0 min 6,7 km/h (2 Bft)
03.04.2010 14:30 15,3 C 10,4 C 0,8 UV-I 0,0 C 52 % 82 % 0 % 1007,3 hPa 0,0 l/m 10,8 km/h (2 Bft) 0 min 7,9 km/h (2 Bft)
03.04.2010 14:32 15,2 C 10,3 C 0,8 UV-I 0,0 C 52 % 82 % 0 % 1007,1 hPa 0,0 l/m 11,6 km/h (2 Bft) 0 min 6,7 km/h (2 Bft)
03.04.2010 14:34 15,3 C 10,4 C 0,8 UV-I 0,0 C 52 % 82 % 0 % 1007,1 hPa 0,0 l/m 12,4 km/h (3 Bft) 0 min 12,3 km/h (3 Bft)
03.04.2010 14:36 15,2 C 10,4 C 1,3 UV-I 0,0 C 52 % 82 % 0 % 1007,1 hPa 0,0 l/m 13,7 km/h (3 Bft) 0 min 9,9 km/h (2 Bft)
03.04.2010 14:38 15,2 C 10,4 C 1,3 UV-I 0,0 C 52 % 81 % 0 % 1007,1 hPa 0,0 l/m 12,8 km/h (3 Bft) 0 min 14,0 km/h (3 Bft)
03.04.2010 14:40 15,2 C 10,4 C 1,5 UV-I 0,0 C 52 % 81 % 0 % 1007,1 hPa 0,0 l/m 14,1 km/h (3 Bft) 0 min 8,9 km/h (2 Bft)
03.04.2010 14:42 15,2 C 10,4 C 1,5 UV-I 0,0 C 52 % 81 % 0 % 1007,1 hPa 0,0 l/m 14,9 km/h (3 Bft) 0 min 12,8 km/h (3 Bft)
03.04.2010 14:44 15,2 C 10,4 C 1,5 UV-I 0,0 C 52 % 81 % 0 % 1007,1 hPa 0,0 l/m 15,7 km/h (3 Bft) 0 min 19,0 km/h (3 Bft)
03.04.2010 14:46 15,2 C 10,5 C 2,0 UV-I 0,0 C 52 % 81 % 0 % 1007,1 hPa 0,0 l/m 15,7 km/h (3 Bft) 0 min 10,6 km/h (2 Bft)
03.04.2010 14:50 15,2 C 10,5 C 2,0 UV-I 0,0 C 52 % 81 % 0 % 1007,1 hPa 0,0 l/m 16,1 km/h (3 Bft) 0 min 14,4 km/h (3 Bft)
03.04.2010 14:52 15,2 C 10,4 C 2,0 UV-I 0,0 C 52 % 81 % 0 % 1006,6 hPa 0,0 l/m 16,1 km/h (3 Bft) 0 min 13,7 km/h (3 Bft)
03.04.2010 14:54 15,2 C 10,4 C 2,0 UV-I 0,0 C 52 % 81 % 0 % 1006,6 hPa 0,0 l/m 16,1 km/h (3 Bft) 0 min 8,9 km/h (2 Bft)
03.04.2010 14:56 15,2 C 10,4 C 0,6 UV-I 0,0 C 52 % 81 % 0 % 1006,6 hPa 0,0 l/m 14,1 km/h (3 Bft) 0 min 7,2 km/h (2 Bft)
03.04.2010 14:58 15,2 C 10,5 C 0,6 UV-I 0,0 C 52 % 81 % 0 % 1006,6 hPa 0,0 l/m 13,7 km/h (3 Bft) 0 min 9,9 km/h (2 Bft)
03.04.2010 15:02 15,2 C 10,5 C 1,2 UV-I 0,2 C 52 % 81 % 6 % 1006,6 hPa 0,0 l/m 11,2 km/h (2 Bft) 0 min 9,4 km/h (2 Bft)
03.04.2010 15:08 15,4 C 10,7 C 2,7 UV-I 0,6 C 53 % 81 % 17 % 1006,6 hPa 0,0 l/m 10,8 km/h (2 Bft) 0 min 10,3 km/h (2 Bft)
03.04.2010 15:12 15,4 C 10,9 C 2,7 UV-I 0,4 C 53 % 81 % 11 % 1007,0 hPa 0,0 l/m 14,1 km/h (3 Bft) 0 min 11,3 km/h (2 Bft)
03.04.2010 15:14 15,4 C 10,8 C 2,7 UV-I 0,4 C 53 % 79 % 11 % 1007,0 hPa 0,0 l/m 14,9 km/h (3 Bft) 0 min 16,8 km/h (3 Bft)
03.04.2010 15:16 15,4 C 10,9 C 2,5 UV-I 0,1 C 53 % 79 % 3 % 1007,0 hPa 0,0 l/m 16,9 km/h (3 Bft) 0 min 19,5 km/h (3 Bft)
03.04.2010 15:20 15,3 C 11,1 C 2,8 UV-I 0,1 C 52 % 78 % 3 % 1007,0 hPa 0,0 l/m 19,3 km/h (3 Bft) 0 min 20,5 km/h (4 Bft)
03.04.2010 15:24 15,5 C 11,1 C 2,8 UV-I 0,0 C 52 % 78 % 0 % 1007,0 hPa 0,0 l/m 18,9 km/h (3 Bft) 0 min 20,7 km/h (4 Bft)
03.04.2010 15:28 15,4 C 11,1 C 2,0 UV-I 0,0 C 52 % 77 % 0 % 1007,0 hPa 0,0 l/m 16,1 km/h (3 Bft) 0 min 12,5 km/h (3 Bft)
03.04.2010 15:30 15,4 C 11,1 C 1,8 UV-I 0,0 C 52 % 76 % 0 % 1007,0 hPa 0,0 l/m 14,9 km/h (3 Bft) 0 min 8,7 km/h (2 Bft)
03.04.2010 15:32 15,6 C 11,2 C 1,8 UV-I 0,0 C 52 % 76 % 0 % 1006,9 hPa 0,0 l/m 13,7 km/h (3 Bft) 0 min 9,9 km/h (2 Bft)
03.04.2010 15:34 15,6 C 11,3 C 1,8 UV-I 0,0 C 52 % 75 % 0 % 1006,9 hPa 0,0 l/m 12,4 km/h (3 Bft) 0 min 5,5 km/h (1 Bft)
03.04.2010 15:36 15,6 C 11,2 C 1,1 UV-I 0,1 C 52 % 76 % 3 % 1006,9 hPa 0,0 l/m 11,6 km/h (2 Bft) 0 min 13,7 km/h (3 Bft)
03.04.2010 15:38 15,6 C 11,2 C 1,1 UV-I 0,0 C 52 % 76 % 0 % 1006,9 hPa 0,1 l/m 10,4 km/h (2 Bft) 0 min 5,1 km/h (1 Bft)
03.04.2010 15:40 15,6 C 11,2 C 1,4 UV-I 0,0 C 52 % 75 % 0 % 1006,9 hPa 0,0 l/m 9,6 km/h (2 Bft) 0 min 3,8 km/h (1 Bft)
03.04.2010 15:42 15,6 C 11,2 C 1,4 UV-I 0,0 C 52 % 76 % 0 % 1006,9 hPa 0,0 l/m 8,4 km/h (2 Bft) 0 min 8,4 km/h (2 Bft)
03.04.2010 15:44 15,6 C 11,2 C 1,4 UV-I 0,0 C 52 % 76 % 0 % 1006,9 hPa 0,0 l/m 9,2 km/h (2 Bft) 0 min 7,2 km/h (2 Bft)
03.04.2010 15:46 15,6 C 11,2 C 1,8 UV-I 0,1 C 52 % 76 % 3 % 1006,9 hPa 0,0 l/m 9,2 km/h (2 Bft) 0 min 4,1 km/h (1 Bft)
03.04.2010 15:50 15,6 C 11,3 C 1,5 UV-I 0,2 C 52 % 76 % 6 % 1006,9 hPa 0,0 l/m 8,0 km/h (2 Bft) 0 min 10,1 km/h (2 Bft)
03.04.2010 15:54 15,6 C 11,3 C 1,5 UV-I 0,5 C 52 % 75 % 14 % 1006,7 hPa 0,0 l/m 7,6 km/h (2 Bft) 0 min 7,7 km/h (2 Bft)
03.04.2010 15:56 15,6 C 11,5 C 1,7 UV-I 0,5 C 52 % 76 % 14 % 1006,7 hPa 0,0 l/m 7,6 km/h (2 Bft) 0 min 13,7 km/h (3 Bft)
03.04.2010 15:58 15,6 C 11,5 C 1,7 UV-I 0,6 C 52 % 75 % 17 % 1006,7 hPa 0,0 l/m 8,4 km/h (2 Bft) 0 min 9,1 km/h (2 Bft)
03.04.2010 16:00 15,6 C 11,4 C 1,7 UV-I 0,8 C 52 % 74 % 23 % 1006,7 hPa 0,0 l/m 9,6 km/h (2 Bft) 0 min 5,8 km/h (2 Bft)
03.04.2010 16:02 15,6 C 11,5 C 1,7 UV-I 0,9 C 52 % 73 % 26 % 1006,7 hPa 0,0 l/m 11,2 km/h (2 Bft) 0 min 24,5 km/h (4 Bft)
03.04.2010 16:04 15,6 C 11,5 C 1,7 UV-I 0,8 C 52 % 73 % 23 % 1006,7 hPa 0,0 l/m 13,7 km/h (3 Bft) 0 min 15,2 km/h (3 Bft)
03.04.2010 16:06 15,6 C 11,6 C 1,7 UV-I 0,5 C 52 % 72 % 14 % 1006,7 hPa 0,0 l/m 16,9 km/h (3 Bft) 0 min 15,2 km/h (3 Bft)
03.04.2010 16:08 15,6 C 11,6 C 1,7 UV-I 0,5 C 52 % 71 % 14 % 1006,7 hPa 0,0 l/m 16,1 km/h (3 Bft) 0 min 8,4 km/h (2 Bft)
03.04.2010 16:10 15,6 C 11,7 C 2,5 UV-I 0,6 C 52 % 71 % 17 % 1006,7 hPa 0,0 l/m 15,7 km/h (3 Bft) 0 min 14,7 km/h (3 Bft)
03.04.2010 16:14 15,7 C 11,9 C 2,5 UV-I 1,4 C 52 % 72 % 40 % 1006,3 hPa 0,0 l/m 16,5 km/h (3 Bft) 0 min 20,0 km/h (4 Bft)
03.04.2010 16:16 15,6 C 11,9 C 3,7 UV-I 1,7 C 52 % 71 % 49 % 1006,3 hPa 0,0 l/m 16,1 km/h (3 Bft) 0 min 16,8 km/h (3 Bft)
03.04.2010 16:20 15,8 C 12,1 C 3,6 UV-I 1,8 C 52 % 70 % 51 % 1006,3 hPa 0,0 l/m 18,1 km/h (3 Bft) 0 min 25,0 km/h (4 Bft)
03.04.2010 16:22 15,8 C 12,0 C 3,6 UV-I 1,8 C 52 % 69 % 51 % 1006,3 hPa 0,0 l/m 17,7 km/h (3 Bft) 0 min 15,6 km/h (3 Bft)
03.04.2010 16:24 15,8 C 12,0 C 3,6 UV-I 1,5 C 51 % 69 % 43 % 1006,3 hPa 0,0 l/m 18,5 km/h (3 Bft) 0 min 15,2 km/h (3 Bft)
03.04.2010 16:26 15,9 C 12,0 C 1,3 UV-I 1,4 C 51 % 70 % 40 % 1006,3 hPa 0,0 l/m 16,9 km/h (3 Bft) 0 min 8,2 km/h (2 Bft)
03.04.2010 16:28 15,8 C 12,0 C 1,3 UV-I 1,2 C 51 % 71 % 34 % 1006,3 hPa 0,0 l/m 17,3 km/h (3 Bft) 0 min 10,6 km/h (2 Bft)
03.04.2010 16:30 15,8 C 12,0 C 0,6 UV-I 1,0 C 51 % 72 % 29 % 1006,3 hPa 0,0 l/m 15,3 km/h (3 Bft) 0 min 32,2 km/h (5 Bft)
03.04.2010 16:32 15,8 C 12,0 C 0,6 UV-I 0,7 C 51 % 72 % 20 % 1006,5 hPa 0,0 l/m 15,3 km/h (3 Bft) 0 min 8,7 km/h (2 Bft)
03.04.2010 16:34 15,8 C 12,1 C 0,6 UV-I 0,5 C 51 % 72 % 14 % 1006,5 hPa 0,0 l/m 14,9 km/h (3 Bft) 0 min 14,0 km/h (3 Bft)
03.04.2010 16:36 15,8 C 12,0 C 0,6 UV-I 0,3 C 51 % 72 % 9 % 1006,5 hPa 0,0 l/m 15,7 km/h (3 Bft) 0 min 15,4 km/h (3 Bft)
03.04.2010 16:40 15,9 C 12,0 C 0,7 UV-I 0,0 C 51 % 72 % 0 % 1006,5 hPa 0,0 l/m 16,5 km/h (3 Bft) 0 min 8,4 km/h (2 Bft)
03.04.2010 16:44 15,9 C 11,9 C 0,7 UV-I 0,0 C 51 % 71 % 0 % 1006,5 hPa 0,0 l/m 16,5 km/h (3 Bft) 0 min 19,2 km/h (3 Bft)
03.04.2010 16:46 15,8 C 11,9 C 0,4 UV-I 0,0 C 51 % 71 % 0 % 1006,5 hPa 0,0 l/m 16,9 km/h (3 Bft) 0 min 12,3 km/h (3 Bft)
03.04.2010 16:48 15,9 C 11,9 C 0,4 UV-I 0,0 C 51 % 71 % 0 % 1006,5 hPa 0,0 l/m 16,5 km/h (3 Bft) 0 min 8,4 km/h (2 Bft)
03.04.2010 16:50 15,9 C 11,9 C 0,1 UV-I 0,0 C 51 % 71 % 0 % 1006,5 hPa 0,0 l/m 16,9 km/h (3 Bft) 0 min 19,2 km/h (3 Bft)
03.04.2010 16:56 15,8 C 11,9 C 0,0 UV-I 0,0 C 51 % 71 % 0 % 1006,0 hPa 0,0 l/m 17,7 km/h (3 Bft) 0 min 11,5 km/h (2 Bft)
03.04.2010 16:58 15,8 C 11,8 C 0,0 UV-I 0,0 C 51 % 70 % 0 % 1006,0 hPa 0,0 l/m 18,1 km/h (3 Bft) 0 min 21,4 km/h (4 Bft)
03.04.2010 17:00 15,8 C 11,8 C 0,1 UV-I 0,0 C 51 % 70 % 0 % 1006,0 hPa 0,0 l/m 18,9 km/h (3 Bft) 0 min 12,3 km/h (3 Bft)
03.04.2010 17:02 15,8 C 11,8 C 0,1 UV-I 0,0 C 51 % 70 % 0 % 1006,0 hPa 0,0 l/m 16,5 km/h (3 Bft) 0 min 12,5 km/h (3 Bft)
03.04.2010 17:03 15,8 C 11,9 C 0,1 UV-I 0,0 C 51 % 70 % 0 % 1006,0 hPa 0,0 l/m 14,9 km/h (3 Bft) 0 min 9,1 km/h (2 Bft)
03.04.2010 17:08 15,8 C 11,9 C 0,9 UV-I 0,0 C 51 % 70 % 0 % 1006,0 hPa 0,0 l/m 15,3 km/h (3 Bft) 0 min 10,1 km/h (2 Bft)
03.04.2010 17:13 15,8 C 11,7 C 0,9 UV-I 0,0 C 51 % 70 % 0 % 1005,9 hPa 0,0 l/m 18,5 km/h (3 Bft) 0 min 11,5 km/h (2 Bft)
03.04.2010 17:19 15,9 C 11,9 C 3,3 UV-I 0,0 C 51 % 71 % 0 % 1005,9 hPa 0,0 l/m 16,1 km/h (3 Bft) 0 min 14,0 km/h (3 Bft)
03.04.2010 17:20 15,9 C 11,9 C 3,3 UV-I 0,0 C 51 % 71 % 0 % 1005,9 hPa 0,0 l/m 16,1 km/h (3 Bft) 0 min 14,0 km/h (3 Bft)
03.04.2010 17:22 15,9 C 11,9 C 3,3 UV-I 0,5 C 51 % 71 % 14 % 1005,9 hPa 0,0 l/m 14,9 km/h (3 Bft) 0 min 11,8 km/h (2 Bft)
03.04.2010 17:24 16,0 C 12,0 C 3,3 UV-I 1,3 C 51 % 71 % 37 % 1005,9 hPa 0,0 l/m 13,3 km/h (3 Bft) 0 min 11,1 km/h (2 Bft)
03.04.2010 17:26 16,0 C 12,3 C 5,0 UV-I 1,6 C 51 % 70 % 46 % 1005,9 hPa 0,0 l/m 14,5 km/h (3 Bft) 0 min 11,1 km/h (2 Bft)
03.04.2010 17:28 15,9 C 12,3 C 5,0 UV-I 2,5 C 51 % 70 % 71 % 1005,9 hPa 0,0 l/m 14,5 km/h (3 Bft) 0 min 19,0 km/h (3 Bft)
03.04.2010 17:30 16,1 C 12,4 C 4,3 UV-I 2,9 C 51 % 70 % 83 % 1005,9 hPa 0,0 l/m 16,1 km/h (3 Bft) 2 min 18,3 km/h (3 Bft)
03.04.2010 17:32 16,2 C 12,4 C 4,3 UV-I 2,7 C 51 % 69 % 77 % 1006,1 hPa 0,0 l/m 16,9 km/h (3 Bft) 0 min 18,0 km/h (3 Bft)
03.04.2010 17:34 16,2 C 12,4 C 4,3 UV-I 2,2 C 50 % 69 % 63 % 1006,1 hPa 0,0 l/m 16,5 km/h (3 Bft) 0 min 3,6 km/h (1 Bft)
03.04.2010 17:36 16,2 C 12,4 C 1,1 UV-I 1,7 C 50 % 69 % 49 % 1006,1 hPa 0,0 l/m 15,3 km/h (3 Bft) 0 min 11,8 km/h (2 Bft)
03.04.2010 17:38 16,2 C 12,4 C 1,1 UV-I 1,5 C 50 % 68 % 43 % 1006,1 hPa 0,0 l/m 15,3 km/h (3 Bft) 0 min 13,5 km/h (3 Bft)
03.04.2010 17:40 16,2 C 12,5 C 1,9 UV-I 1,4 C 50 % 67 % 40 % 1006,1 hPa 0,0 l/m 15,7 km/h (3 Bft) 0 min 10,6 km/h (2 Bft)
03.04.2010 17:42 16,2 C 12,4 C 1,9 UV-I 1,4 C 50 % 67 % 40 % 1006,1 hPa 0,0 l/m 14,9 km/h (3 Bft) 0 min 13,0 km/h (3 Bft)
03.04.2010 17:44 16,3 C 12,4 C 1,9 UV-I 1,3 C 50 % 67 % 37 % 1006,1 hPa 0,0 l/m 13,3 km/h (3 Bft) 0 min 10,1 km/h (2 Bft)
03.04.2010 17:46 16,3 C 12,4 C 0,8 UV-I 1,0 C 50 % 68 % 29 % 1006,1 hPa 0,0 l/m 13,7 km/h (3 Bft) 0 min 9,1 km/h (2 Bft)
03.04.2010 17:48 16,3 C 12,5 C 0,8 UV-I 0,7 C 50 % 68 % 20 % 1006,1 hPa 0,0 l/m 13,3 km/h (3 Bft) 0 min 10,3 km/h (2 Bft)
03.04.2010 17:50 16,3 C 12,5 C 0,5 UV-I 0,5 C 50 % 68 % 14 % 1006,1 hPa 0,0 l/m 12,0 km/h (2 Bft) 0 min 10,1 km/h (2 Bft)
03.04.2010 17:52 16,3 C 12,5 C 0,5 UV-I 0,3 C 50 % 68 % 9 % 1006,0 hPa 0,0 l/m 11,6 km/h (2 Bft) 0 min 18,0 km/h (3 Bft)
03.04.2010 17:54 16,3 C 12,4 C 0,5 UV-I 0,2 C 50 % 68 % 6 % 1006,0 hPa 0,0 l/m 13,3 km/h (3 Bft) 0 min 22,6 km/h (4 Bft)
03.04.2010 17:56 16,3 C 12,3 C 0,0 UV-I 0,0 C 50 % 68 % 0 % 1006,0 hPa 0,0 l/m 14,5 km/h (3 Bft) 0 min 5,3 km/h (1 Bft)
03.04.2010 17:58 16,2 C 12,3 C 0,0 UV-I 0,0 C 49 % 67 % 0 % 1006,0 hPa 0,0 l/m 15,3 km/h (3 Bft) 0 min 15,4 km/h (3 Bft)
03.04.2010 18:00 16,4 C 12,3 C 0,1 UV-I 0,0 C 49 % 67 % 0 % 1006,0 hPa 0,0 l/m 16,1 km/h (3 Bft) 0 min 9,9 km/h (2 Bft)
03.04.2010 18:02 16,2 C 12,3 C 0,1 UV-I 0,0 C 49 % 67 % 0 % 1006,0 hPa 0,0 l/m 16,5 km/h (3 Bft) 0 min 11,8 km/h (2 Bft)
03.04.2010 18:04 16,4 C 12,3 C 0,1 UV-I 0,0 C 49 % 67 % 0 % 1006,0 hPa 0,0 l/m 16,5 km/h (3 Bft) 0 min 14,4 km/h (3 Bft)
03.04.2010 18:06 16,4 C 12,3 C 0,0 UV-I 0,0 C 49 % 67 % 0 % 1006,0 hPa 0,0 l/m 14,5 km/h (3 Bft) 0 min 12,8 km/h (3 Bft)
03.04.2010 18:08 16,4 C 12,3 C 0,0 UV-I 0,0 C 49 % 66 % 0 % 1006,0 hPa 0,0 l/m 16,1 km/h (3 Bft) 0 min 5,3 km/h (1 Bft)
03.04.2010 18:10 16,4 C 12,3 C 0,0 UV-I 0,0 C 49 % 67 % 0 % 1006,0 hPa 0,0 l/m 14,9 km/h (3 Bft) 0 min 12,0 km/h (2 Bft)
03.04.2010 18:12 16,4 C 12,1 C 0,0 UV-I 0,0 C 49 % 67 % 0 % 1005,8 hPa 0,0 l/m 15,3 km/h (3 Bft) 0 min 14,2 km/h (3 Bft)
03.04.2010 18:14 16,4 C 12,1 C 0,0 UV-I 0,0 C 49 % 66 % 0 % 1005,8 hPa 0,0 l/m 15,7 km/h (3 Bft) 0 min 16,6 km/h (3 Bft)
03.04.2010 18:16 16,4 C 12,1 C 0,1 UV-I 0,0 C 49 % 66 % 0 % 1005,8 hPa 0,0 l/m 17,3 km/h (3 Bft) 0 min 18,3 km/h (3 Bft)
03.04.2010 18:18 16,3 C 12,1 C 0,1 UV-I 0,0 C 49 % 67 % 0 % 1005,8 hPa 0,0 l/m 16,5 km/h (3 Bft) 0 min 9,6 km/h (2 Bft)
03.04.2010 18:20 16,3 C 12,1 C 0,0 UV-I 0,0 C 49 % 67 % 0 % 1005,8 hPa 0,0 l/m 16,5 km/h (3 Bft) 0 min 13,0 km/h (3 Bft)
03.04.2010 18:24 16,2 C 12,0 C 0,0 UV-I 0,0 C 49 % 67 % 0 % 1005,8 hPa 0,0 l/m 16,9 km/h (3 Bft) 0 min 19,2 km/h (3 Bft)
03.04.2010 18:26 16,2 C 12,0 C 0,0 UV-I 0,0 C 49 % 68 % 0 % 1005,8 hPa 0,0 l/m 15,7 km/h (3 Bft) 0 min 6,0 km/h (2 Bft)
03.04.2010 18:28 16,2 C 12,0 C 0,0 UV-I 0,0 C 49 % 68 % 0 % 1005,8 hPa 0,0 l/m 15,3 km/h (3 Bft) 0 min 14,0 km/h (3 Bft)
03.04.2010 18:30 16,2 C 12,0 C 0,0 UV-I 0,0 C 49 % 68 % 0 % 1005,8 hPa 0,0 l/m 16,5 km/h (3 Bft) 0 min 9,9 km/h (2 Bft)
03.04.2010 18:32 16,1 C 12,0 C 0,0 UV-I 0,0 C 49 % 68 % 0 % 1005,5 hPa 0,0 l/m 16,9 km/h (3 Bft) 0 min 19,2 km/h (3 Bft)
03.04.2010 18:34 16,1 C 11,9 C 0,0 UV-I 0,0 C 49 % 68 % 0 % 1005,5 hPa 0,0 l/m 15,3 km/h (3 Bft) 0 min 9,9 km/h (2 Bft)
03.04.2010 18:36 16,1 C 11,9 C 0,0 UV-I 0,0 C 49 % 68 % 0 % 1005,5 hPa 0,0 l/m 14,1 km/h (3 Bft) 0 min 3,1 km/h (1 Bft)
03.04.2010 18:38 15,9 C 11,9 C 0,0 UV-I 0,0 C 49 % 68 % 0 % 1005,5 hPa 0,0 l/m 13,7 km/h (3 Bft) 0 min 7,5 km/h (2 Bft)
03.04.2010 18:40 15,9 C 11,9 C 0,0 UV-I 0,0 C 49 % 68 % 0 % 1005,5 hPa 0,0 l/m 13,3 km/h (3 Bft) 0 min 15,2 km/h (3 Bft)
03.04.2010 18:42 16,0 C 11,8 C 0,0 UV-I 0,0 C 49 % 68 % 0 % 1005,5 hPa 0,0 l/m 13,7 km/h (3 Bft) 0 min 11,5 km/h (2 Bft)
03.04.2010 18:44 16,0 C 11,7 C 0,0 UV-I 0,0 C 49 % 68 % 0 % 1005,5 hPa 0,0 l/m 12,8 km/h (3 Bft) 0 min 7,2 km/h (2 Bft)
03.04.2010 18:46 16,0 C 11,7 C 0,0 UV-I 0,0 C 50 % 68 % 0 % 1005,5 hPa 0,0 l/m 13,7 km/h (3 Bft) 0 min 12,8 km/h (3 Bft)
03.04.2010 18:48 16,0 C 11,7 C 0,0 UV-I 0,0 C 50 % 69 % 0 % 1005,5 hPa 0,0 l/m 14,5 km/h (3 Bft) 0 min 14,7 km/h (3 Bft)
03.04.2010 18:50 16,0 C 11,7 C 0,0 UV-I 0,0 C 50 % 69 % 0 % 1005,5 hPa 0,0 l/m 14,9 km/h (3 Bft) 0 min 12,0 km/h (2 Bft)
03.04.2010 18:52 15,8 C 11,7 C 0,0 UV-I 0,0 C 50 % 69 % 0 % 1005,6 hPa 0,0 l/m 13,3 km/h (3 Bft) 0 min 3,6 km/h (1 Bft)
03.04.2010 18:54 15,9 C 11,7 C 0,0 UV-I 0,0 C 50 % 70 % 0 % 1005,6 hPa 0,0 l/m 12,4 km/h (3 Bft) 0 min 5,8 km/h (2 Bft)
03.04.2010 18:56 15,8 C 11,6 C 0,0 UV-I 0,0 C 50 % 70 % 0 % 1005,6 hPa 0,0 l/m 12,8 km/h (3 Bft) 0 min 7,5 km/h (2 Bft)
03.04.2010 18:58 15,9 C 11,7 C 0,0 UV-I 0,0 C 50 % 70 % 0 % 1005,6 hPa 0,0 l/m 12,8 km/h (3 Bft) 0 min 11,8 km/h (2 Bft)
03.04.2010 19:00 15,9 C 11,7 C 0,2 UV-I 0,0 C 50 % 70 % 0 % 1005,6 hPa 0,0 l/m 12,4 km/h (3 Bft) 0 min 7,0 km/h (2 Bft)
03.04.2010 19:02 15,9 C 11,6 C 0,2 UV-I 0,0 C 50 % 69 % 0 % 1005,6 hPa 0,0 l/m 11,6 km/h (2 Bft) 0 min 6,3 km/h (2 Bft)
03.04.2010 19:04 15,9 C 11,6 C 0,2 UV-I 0,0 C 50 % 70 % 0 % 1005,6 hPa 0,0 l/m 12,8 km/h (3 Bft) 0 min 8,7 km/h (2 Bft)
03.04.2010 19:06 15,9 C 11,6 C 0,2 UV-I 0,0 C 50 % 70 % 0 % 1005,6 hPa 0,0 l/m 12,4 km/h (3 Bft) 0 min 12,5 km/h (3 Bft)
03.04.2010 19:08 15,8 C 11,6 C 0,2 UV-I 0,0 C 50 % 69 % 0 % 1005,6 hPa 0,0 l/m 12,0 km/h (2 Bft) 0 min 4,1 km/h (1 Bft)
03.04.2010 19:10 15,8 C 11,5 C 0,0 UV-I 0,0 C 50 % 69 % 0 % 1005,6 hPa 0,0 l/m 11,6 km/h (2 Bft) 0 min 12,5 km/h (3 Bft)
03.04.2010 19:12 15,8 C 11,5 C 0,0 UV-I 0,0 C 50 % 69 % 0 % 1005,6 hPa 0,0 l/m 12,0 km/h (2 Bft) 0 min 7,2 km/h (2 Bft)
03.04.2010 19:14 15,8 C 11,5 C 0,0 UV-I 0,0 C 50 % 69 % 0 % 1005,6 hPa 0,0 l/m 11,6 km/h (2 Bft) 0 min 7,5 km/h (2 Bft)
03.04.2010 19:16 15,8 C 11,5 C 0,0 UV-I 0,0 C 50 % 69 % 0 % 1005,6 hPa 0,0 l/m 11,6 km/h (2 Bft) 0 min 6,0 km/h (2 Bft)
03.04.2010 19:18 15,8 C 11,5 C 0,0 UV-I 0,0 C 50 % 69 % 0 % 1005,6 hPa 0,0 l/m 11,6 km/h (2 Bft) 0 min 7,5 km/h (2 Bft)
03.04.2010 19:20 15,8 C 11,5 C 0,0 UV-I 0,0 C 50 % 69 % 0 % 1005,6 hPa 0,0 l/m 12,0 km/h (2 Bft) 0 min 6,0 km/h (2 Bft)
03.04.2010 19:22 15,8 C 11,4 C 0,0 UV-I 0,0 C 50 % 69 % 0 % 1005,6 hPa 0,0 l/m 11,6 km/h (2 Bft) 0 min 9,4 km/h (2 Bft)
03.04.2010 19:24 15,8 C 11,5 C 0,0 UV-I 0,0 C 50 % 69 % 0 % 1005,6 hPa 0,0 l/m 10,8 km/h (2 Bft) 0 min 8,7 km/h (2 Bft)
03.04.2010 19:26 15,8 C 11,5 C 0,0 UV-I 0,0 C 50 % 69 % 0 % 1005,6 hPa 0,0 l/m 11,6 km/h (2 Bft) 0 min 7,9 km/h (2 Bft)
03.04.2010 19:28 15,8 C 11,5 C 0,0 UV-I 0,0 C 50 % 69 % 0 % 1005,6 hPa 0,0 l/m 12,4 km/h (3 Bft) 0 min 11,5 km/h (2 Bft)
03.04.2010 19:30 15,8 C 11,5 C 0,0 UV-I 0,0 C 50 % 69 % 0 % 1005,6 hPa 0,0 l/m 12,4 km/h (3 Bft) 0 min 13,0 km/h (3 Bft)
03.04.2010 19:32 15,8 C 11,3 C 0,0 UV-I 0,0 C 50 % 69 % 0 % 1005,6 hPa 0,0 l/m 12,8 km/h (3 Bft) 0 min 12,8 km/h (3 Bft)
03.04.2010 19:34 15,8 C 11,3 C 0,0 UV-I 0,0 C 50 % 70 % 0 % 1005,6 hPa 0,0 l/m 12,8 km/h (3 Bft) 0 min 9,4 km/h (2 Bft)
03.04.2010 19:36 15,8 C 11,3 C 0,0 UV-I 0,0 C 50 % 69 % 0 % 1005,6 hPa 0,0 l/m 13,3 km/h (3 Bft) 0 min 11,3 km/h (2 Bft)
03.04.2010 19:38 15,8 C 11,3 C 0,0 UV-I 0,0 C 50 % 69 % 0 % 1005,6 hPa 0,0 l/m 14,5 km/h (3 Bft) 0 min 10,8 km/h (2 Bft)
03.04.2010 19:40 15,6 C 11,3 C 0,0 UV-I 0,0 C 50 % 70 % 0 % 1005,6 hPa 0,0 l/m 14,1 km/h (3 Bft) 0 min 7,7 km/h (2 Bft)
03.04.2010 19:42 15,6 C 11,3 C 0,0 UV-I 0,0 C 50 % 70 % 0 % 1005,6 hPa 0,0 l/m 14,5 km/h (3 Bft) 0 min 11,5 km/h (2 Bft)
03.04.2010 19:44 15,6 C 11,3 C 0,0 UV-I 0,0 C 50 % 70 % 0 % 1005,6 hPa 0,0 l/m 14,9 km/h (3 Bft) 0 min 12,3 km/h (3 Bft)
03.04.2010 19:46 15,6 C 11,2 C 0,0 UV-I 0,0 C 50 % 70 % 0 % 1005,6 hPa 0,0 l/m 15,3 km/h (3 Bft) 0 min 7,9 km/h (2 Bft)
03.04.2010 19:48 15,6 C 11,2 C 0,0 UV-I 0,0 C 50 % 70 % 0 % 1005,6 hPa 0,0 l/m 13,3 km/h (3 Bft) 0 min 12,3 km/h (3 Bft)
03.04.2010 19:50 15,6 C 11,2 C 0,0 UV-I 0,0 C 50 % 70 % 0 % 1005,6 hPa 0,0 l/m 14,1 km/h (3 Bft) 0 min 10,6 km/h (2 Bft)
03.04.2010 19:52 15,7 C 11,2 C 0,0 UV-I 0,0 C 50 % 70 % 0 % 1005,7 hPa 0,0 l/m 13,3 km/h (3 Bft) 0 min 7,5 km/h (2 Bft)
03.04.2010 19:54 15,7 C 11,2 C 0,0 UV-I 0,0 C 50 % 70 % 0 % 1005,7 hPa 0,0 l/m 12,4 km/h (3 Bft) 0 min 3,8 km/h (1 Bft)
03.04.2010 19:56 15,7 C 11,1 C 0,0 UV-I 0,0 C 50 % 70 % 0 % 1005,7 hPa 0,0 l/m 11,6 km/h (2 Bft) 0 min 13,2 km/h (3 Bft)
03.04.2010 19:58 15,7 C 11,1 C 0,0 UV-I 0,0 C 50 % 70 % 0 % 1005,7 hPa 0,0 l/m 13,3 km/h (3 Bft) 0 min 14,0 km/h (3 Bft)
03.04.2010 20:00 15,7 C 11,1 C 0,0 UV-I 0,0 C 50 % 70 % 0 % 1005,7 hPa 0,0 l/m 13,3 km/h (3 Bft) 0 min 14,7 km/h (3 Bft)
03.04.2010 20:02 15,6 C 11,1 C 0,0 UV-I 0,0 C 50 % 70 % 0 % 1005,7 hPa 0,0 l/m 14,1 km/h (3 Bft) 0 min 10,3 km/h (2 Bft)
03.04.2010 20:04 15,6 C 11,1 C 0,0 UV-I 0,0 C 50 % 70 % 0 % 1005,7 hPa 0,0 l/m 14,5 km/h (3 Bft) 0 min 10,6 km/h (2 Bft)
03.04.2010 20:06 15,6 C 11,1 C 0,0 UV-I 0,0 C 50 % 70 % 0 % 1005,7 hPa 0,0 l/m 14,9 km/h (3 Bft) 0 min 6,3 km/h (2 Bft)
03.04.2010 20:08 15,6 C 11,1 C 0,0 UV-I 0,0 C 50 % 70 % 0 % 1005,7 hPa 0,0 l/m 14,1 km/h (3 Bft) 0 min 11,1 km/h (2 Bft)
03.04.2010 20:10 15,6 C 11,1 C 0,0 UV-I 0,0 C 50 % 70 % 0 % 1005,7 hPa 0,0 l/m 13,3 km/h (3 Bft) 0 min 19,7 km/h (3 Bft)
03.04.2010 20:12 15,6 C 11,1 C 0,0 UV-I 0,0 C 50 % 70 % 0 % 1005,8 hPa 0,0 l/m 12,4 km/h (3 Bft) 0 min 10,1 km/h (2 Bft)
03.04.2010 20:14 15,6 C 10,9 C 0,0 UV-I 0,0 C 50 % 70 % 0 % 1005,8 hPa 0,0 l/m 11,6 km/h (2 Bft) 0 min 9,4 km/h (2 Bft)
03.04.2010 20:16 15,6 C 10,9 C 0,0 UV-I 0,0 C 50 % 70 % 0 % 1005,8 hPa 0,0 l/m 12,0 km/h (2 Bft) 0 min 10,6 km/h (2 Bft)
03.04.2010 20:18 15,6 C 10,9 C 0,0 UV-I 0,0 C 50 % 70 % 0 % 1005,8 hPa 0,0 l/m 12,0 km/h (2 Bft) 0 min 6,5 km/h (2 Bft)
03.04.2010 20:20 15,6 C 10,9 C 0,0 UV-I 0,0 C 50 % 70 % 0 % 1005,8 hPa 0,0 l/m 12,8 km/h (3 Bft) 0 min 6,5 km/h (2 Bft)
03.04.2010 20:22 15,6 C 10,9 C 0,0 UV-I 0,0 C 50 % 70 % 0 % 1005,8 hPa 0,0 l/m 11,6 km/h (2 Bft) 0 min 10,8 km/h (2 Bft)
03.04.2010 20:24 15,6 C 10,8 C 0,0 UV-I 0,0 C 50 % 70 % 0 % 1005,8 hPa 0,0 l/m 13,3 km/h (3 Bft) 0 min 18,3 km/h (3 Bft)
03.04.2010 20:26 15,6 C 10,8 C 0,0 UV-I 0,0 C 50 % 70 % 0 % 1005,8 hPa 0,0 l/m 12,4 km/h (3 Bft) 0 min 8,7 km/h (2 Bft)
03.04.2010 20:28 15,6 C 10,8 C 0,0 UV-I 0,0 C 50 % 70 % 0 % 1005,8 hPa 0,0 l/m 12,8 km/h (3 Bft) 0 min 6,0 km/h (2 Bft)
03.04.2010 20:30 15,6 C 10,8 C 0,0 UV-I 0,0 C 50 % 70 % 0 % 1005,8 hPa 0,0 l/m 12,0 km/h (2 Bft) 0 min 8,4 km/h (2 Bft)
03.04.2010 20:32 15,6 C 10,8 C 0,0 UV-I 0,0 C 50 % 70 % 0 % 1005,9 hPa 0,0 l/m 12,0 km/h (2 Bft) 0 min 6,7 km/h (2 Bft)
03.04.2010 20:34 15,6 C 10,9 C 0,0 UV-I 0,0 C 50 % 70 % 0 % 1005,9 hPa 0,0 l/m 11,6 km/h (2 Bft) 0 min 11,5 km/h (2 Bft)
03.04.2010 20:36 15,6 C 10,8 C 0,0 UV-I 0,0 C 50 % 70 % 0 % 1005,9 hPa 0,0 l/m 12,0 km/h (2 Bft) 0 min 8,4 km/h (2 Bft)
03.04.2010 20:38 15,6 C 10,8 C 0,0 UV-I 0,0 C 50 % 71 % 0 % 1005,9 hPa 0,0 l/m 10,8 km/h (2 Bft) 0 min 6,5 km/h (2 Bft)
03.04.2010 20:40 15,6 C 10,8 C 0,0 UV-I 0,0 C 50 % 71 % 0 % 1005,9 hPa 0,0 l/m 11,2 km/h (2 Bft) 0 min 6,7 km/h (2 Bft)
03.04.2010 20:42 15,6 C 10,7 C 0,0 UV-I 0,0 C 50 % 71 % 0 % 1005,9 hPa 0,0 l/m 11,2 km/h (2 Bft) 0 min 4,3 km/h (1 Bft)
03.04.2010 20:44 15,6 C 10,7 C 0,0 UV-I 0,0 C 50 % 71 % 0 % 1005,9 hPa 0,0 l/m 11,2 km/h (2 Bft) 0 min 7,5 km/h (2 Bft)
03.04.2010 20:46 15,6 C 10,7 C 0,0 UV-I 0,0 C 50 % 71 % 0 % 1005,9 hPa 0,0 l/m 11,2 km/h (2 Bft) 0 min 9,9 km/h (2 Bft)
03.04.2010 20:48 15,6 C 10,6 C 0,0 UV-I 0,0 C 50 % 71 % 0 % 1005,9 hPa 0,0 l/m 9,6 km/h (2 Bft) 0 min 5,8 km/h (2 Bft)
03.04.2010 20:50 15,6 C 10,6 C 0,0 UV-I 0,0 C 50 % 72 % 0 % 1005,9 hPa 0,0 l/m 9,2 km/h (2 Bft) 0 min 7,0 km/h (2 Bft)
03.04.2010 20:52 15,4 C 10,6 C 0,0 UV-I 0,0 C 51 % 72 % 0 % 1005,7 hPa 0,0 l/m 9,2 km/h (2 Bft) 0 min 5,5 km/h (1 Bft)
03.04.2010 20:54 15,6 C 10,7 C 0,0 UV-I 0,0 C 51 % 72 % 0 % 1005,7 hPa 0,0 l/m 8,8 km/h (2 Bft) 0 min 9,6 km/h (2 Bft)
03.04.2010 20:56 15,6 C 10,7 C 0,0 UV-I 0,0 C 51 % 72 % 0 % 1005,7 hPa 0,0 l/m 8,8 km/h (2 Bft) 0 min 8,4 km/h (2 Bft)
03.04.2010 20:58 15,4 C 10,7 C 0,0 UV-I 0,0 C 51 % 72 % 0 % 1005,7 hPa 0,0 l/m 9,2 km/h (2 Bft) 0 min 5,1 km/h (1 Bft)
03.04.2010 21:00 15,4 C 10,6 C 0,0 UV-I 0,0 C 51 % 72 % 0 % 1005,7 hPa 0,0 l/m 8,8 km/h (2 Bft) 0 min 5,3 km/h (1 Bft)
03.04.2010 21:02 15,5 C 10,5 C 0,0 UV-I 0,0 C 51 % 72 % 0 % 1005,7 hPa 0,0 l/m 7,6 km/h (2 Bft) 0 min 4,3 km/h (1 Bft)
03.04.2010 21:04 15,5 C 10,5 C 0,0 UV-I 0,0 C 51 % 72 % 0 % 1005,7 hPa 0,0 l/m 7,6 km/h (2 Bft) 0 min 7,7 km/h (2 Bft)
03.04.2010 21:06 15,5 C 10,5 C 0,0 UV-I 0,0 C 51 % 73 % 0 % 1005,7 hPa 0,0 l/m 7,2 km/h (2 Bft) 0 min 7,2 km/h (2 Bft)
03.04.2010 21:08 15,5 C 10,5 C 0,0 UV-I 0,0 C 51 % 73 % 0 % 1005,7 hPa 0,0 l/m 7,2 km/h (2 Bft) 0 min 6,7 km/h (2 Bft)
03.04.2010 21:10 15,5 C 10,4 C 0,0 UV-I 0,0 C 51 % 73 % 0 % 1005,7 hPa 0,0 l/m 7,6 km/h (2 Bft) 0 min 9,1 km/h (2 Bft)
03.04.2010 21:12 15,5 C 10,4 C 0,0 UV-I 0,0 C 51 % 73 % 0 % 1005,6 hPa 0,0 l/m 9,2 km/h (2 Bft) 0 min 10,1 km/h (2 Bft)
03.04.2010 21:14 15,5 C 10,4 C 0,0 UV-I 0,0 C 51 % 73 % 0 % 1005,6 hPa 0,0 l/m 10,8 km/h (2 Bft) 0 min 13,2 km/h (3 Bft)
03.04.2010 21:16 15,5 C 10,4 C 0,0 UV-I 0,0 C 51 % 73 % 0 % 1005,6 hPa 0,0 l/m 10,4 km/h (2 Bft) 0 min 6,3 km/h (2 Bft)
03.04.2010 21:18 15,5 C 10,4 C 0,0 UV-I 0,0 C 51 % 73 % 0 % 1005,6 hPa 0,0 l/m 10,4 km/h (2 Bft) 0 min 7,5 km/h (2 Bft)
03.04.2010 21:20 15,5 C 10,4 C 0,0 UV-I 0,0 C 51 % 73 % 0 % 1005,6 hPa 0,0 l/m 10,8 km/h (2 Bft) 0 min 4,6 km/h (1 Bft)
03.04.2010 21:22 15,3 C 10,3 C 0,0 UV-I 0,0 C 51 % 73 % 0 % 1005,6 hPa 0,0 l/m 9,2 km/h (2 Bft) 0 min 3,1 km/h (1 Bft)
03.04.2010 21:24 15,5 C 10,3 C 0,0 UV-I 0,0 C 51 % 73 % 0 % 1005,6 hPa 0,0 l/m 9,2 km/h (2 Bft) 0 min 11,3 km/h (2 Bft)
03.04.2010 21:26 15,5 C 10,3 C 0,0 UV-I 0,0 C 51 % 74 % 0 % 1005,6 hPa 0,0 l/m 7,6 km/h (2 Bft) 0 min 2,4 km/h (1 Bft)
03.04.2010 21:28 15,3 C 10,3 C 0,0 UV-I 0,0 C 51 % 74 % 0 % 1005,6 hPa 0,0 l/m 7,6 km/h (2 Bft) 0 min 3,8 km/h (1 Bft)
03.04.2010 21:30 15,3 C 10,3 C 0,0 UV-I 0,0 C 51 % 74 % 0 % 1005,6 hPa 0,0 l/m 6,4 km/h (2 Bft) 0 min 5,5 km/h (1 Bft)
03.04.2010 21:32 15,3 C 10,2 C 0,0 UV-I 0,0 C 51 % 74 % 0 % 1005,7 hPa 0,0 l/m 6,8 km/h (2 Bft) 0 min 7,2 km/h (2 Bft)
03.04.2010 21:34 15,3 C 10,2 C 0,0 UV-I 0,0 C 51 % 74 % 0 % 1005,7 hPa 0,0 l/m 6,8 km/h (2 Bft) 0 min 10,6 km/h (2 Bft)
03.04.2010 21:36 15,4 C 10,3 C 0,0 UV-I 0,0 C 51 % 74 % 0 % 1005,7 hPa 0,0 l/m 7,2 km/h (2 Bft) 0 min 5,1 km/h (1 Bft)
03.04.2010 21:38 15,3 C 10,3 C 0,0 UV-I 0,0 C 51 % 74 % 0 % 1005,7 hPa 0,0 l/m 9,2 km/h (2 Bft) 0 min 5,1 km/h (1 Bft)
03.04.2010 21:40 15,3 C 10,3 C 0,0 UV-I 0,0 C 51 % 74 % 0 % 1005,7 hPa 0,0 l/m 10,8 km/h (2 Bft) 0 min 8,2 km/h (2 Bft)
03.04.2010 21:42 15,3 C 10,3 C 0,0 UV-I 0,0 C 51 % 74 % 0 % 1005,7 hPa 0,0 l/m 10,4 km/h (2 Bft) 0 min 3,1 km/h (1 Bft)
03.04.2010 21:44 15,3 C 10,3 C 0,0 UV-I 0,0 C 51 % 74 % 0 % 1005,7 hPa 0,0 l/m 10,4 km/h (2 Bft) 0 min 6,0 km/h (2 Bft)
03.04.2010 21:46 15,5 C 10,3 C 0,0 UV-I 0,0 C 51 % 74 % 0 % 1005,7 hPa 0,0 l/m 9,6 km/h (2 Bft) 0 min 5,5 km/h (1 Bft)
03.04.2010 21:48 15,5 C 10,2 C 0,0 UV-I 0,0 C 51 % 74 % 0 % 1005,7 hPa 0,0 l/m 8,4 km/h (2 Bft) 0 min 10,3 km/h (2 Bft)
03.04.2010 21:50 15,5 C 10,2 C 0,0 UV-I 0,0 C 51 % 74 % 0 % 1005,7 hPa 0,0 l/m 8,0 km/h (2 Bft) 0 min 5,1 km/h (1 Bft)
03.04.2010 21:52 15,3 C 10,2 C 0,0 UV-I 0,0 C 51 % 74 % 0 % 1006,0 hPa 0,0 l/m 8,0 km/h (2 Bft) 0 min 5,5 km/h (1 Bft)
03.04.2010 21:54 15,3 C 10,1 C 0,0 UV-I 0,0 C 51 % 74 % 0 % 1006,0 hPa 0,0 l/m 8,4 km/h (2 Bft) 0 min 13,5 km/h (3 Bft)
03.04.2010 21:56 15,5 C 10,1 C 0,0 UV-I 0,0 C 51 % 74 % 0 % 1006,0 hPa 0,0 l/m 8,8 km/h (2 Bft) 0 min 3,8 km/h (1 Bft)
03.04.2010 21:58 15,5 C 10,1 C 0,0 UV-I 0,0 C 51 % 74 % 0 % 1006,0 hPa 0,0 l/m 10,0 km/h (2 Bft) 0 min 7,7 km/h (2 Bft)
03.04.2010 22:00 15,5 C 10,1 C 0,0 UV-I 0,0 C 51 % 74 % 0 % 1006,0 hPa 0,0 l/m 11,2 km/h (2 Bft) 0 min 10,3 km/h (2 Bft)
03.04.2010 22:02 15,3 C 10,1 C 0,0 UV-I 0,0 C 51 % 75 % 0 % 1006,0 hPa 0,0 l/m 11,6 km/h (2 Bft) 0 min 11,8 km/h (2 Bft)
03.04.2010 22:04 15,5 C 10,1 C 0,0 UV-I 0,0 C 51 % 75 % 0 % 1006,0 hPa 0,0 l/m 12,8 km/h (3 Bft) 0 min 7,7 km/h (2 Bft)
03.04.2010 22:06 15,5 C 10,0 C 0,0 UV-I 0,0 C 51 % 75 % 0 % 1006,0 hPa 0,0 l/m 12,8 km/h (3 Bft) 0 min 7,9 km/h (2 Bft)
03.04.2010 22:08 15,5 C 10,0 C 0,0 UV-I 0,0 C 51 % 76 % 0 % 1006,0 hPa 0,0 l/m 12,4 km/h (3 Bft) 0 min 10,6 km/h (2 Bft)
03.04.2010 22:10 15,5 C 10,0 C 0,0 UV-I 0,0 C 51 % 76 % 0 % 1006,0 hPa 0,0 l/m 12,8 km/h (3 Bft) 0 min 12,5 km/h (3 Bft)
03.04.2010 22:12 15,5 C 10,1 C 0,0 UV-I 0,0 C 51 % 76 % 0 % 1005,9 hPa 0,0 l/m 12,4 km/h (3 Bft) 0 min 11,3 km/h (2 Bft)
03.04.2010 22:14 15,5 C 10,1 C 0,0 UV-I 0,0 C 51 % 77 % 0 % 1005,9 hPa 0,0 l/m 12,0 km/h (2 Bft) 0 min 11,5 km/h (2 Bft)
03.04.2010 22:16 15,5 C 10,0 C 0,0 UV-I 0,0 C 51 % 76 % 0 % 1005,9 hPa 0,0 l/m 12,4 km/h (3 Bft) 0 min 8,7 km/h (2 Bft)
03.04.2010 22:18 15,5 C 10,0 C 0,0 UV-I 0,0 C 51 % 77 % 0 % 1005,9 hPa 0,0 l/m 12,8 km/h (3 Bft) 0 min 9,9 km/h (2 Bft)
03.04.2010 22:20 15,5 C 9,9 C 0,0 UV-I 0,0 C 51 % 76 % 0 % 1005,9 hPa 0,0 l/m 14,1 km/h (3 Bft) 0 min 11,1 km/h (2 Bft)
03.04.2010 22:22 15,5 C 9,9 C 0,0 UV-I 0,0 C 51 % 76 % 0 % 1005,9 hPa 0,0 l/m 12,8 km/h (3 Bft) 0 min 7,7 km/h (2 Bft)
03.04.2010 22:24 15,5 C 9,9 C 0,0 UV-I 0,0 C 51 % 76 % 0 % 1005,9 hPa 0,0 l/m 12,8 km/h (3 Bft) 0 min 11,8 km/h (2 Bft)
03.04.2010 22:26 15,5 C 9,9 C 0,0 UV-I 0,0 C 51 % 76 % 0 % 1005,9 hPa 0,0 l/m 12,0 km/h (2 Bft) 0 min 23,1 km/h (4 Bft)
03.04.2010 22:28 15,5 C 9,9 C 0,0 UV-I 0,0 C 51 % 76 % 0 % 1005,9 hPa 0,0 l/m 12,0 km/h (2 Bft) 0 min 6,7 km/h (2 Bft)
03.04.2010 22:30 15,5 C 9,9 C 0,0 UV-I 0,0 C 51 % 76 % 0 % 1005,9 hPa 0,0 l/m 10,8 km/h (2 Bft) 0 min 7,7 km/h (2 Bft)
03.04.2010 22:32 15,5 C 9,8 C 0,0 UV-I 0,0 C 51 % 77 % 0 % 1005,6 hPa 0,0 l/m 10,8 km/h (2 Bft) 0 min 7,0 km/h (2 Bft)
03.04.2010 22:34 15,5 C 9,8 C 0,0 UV-I 0,0 C 51 % 77 % 0 % 1005,6 hPa 0,0 l/m 10,8 km/h (2 Bft) 0 min 5,5 km/h (1 Bft)
03.04.2010 22:36 15,5 C 9,9 C 0,0 UV-I 0,0 C 51 % 76 % 0 % 1005,6 hPa 0,0 l/m 10,4 km/h (2 Bft) 0 min 11,5 km/h (2 Bft)
03.04.2010 22:38 15,5 C 9,9 C 0,0 UV-I 0,0 C 51 % 77 % 0 % 1005,6 hPa 0,0 l/m 10,0 km/h (2 Bft) 0 min 7,9 km/h (2 Bft)
03.04.2010 22:40 15,5 C 9,9 C 0,0 UV-I 0,0 C 51 % 76 % 0 % 1005,6 hPa 0,0 l/m 11,6 km/h (2 Bft) 0 min 14,2 km/h (3 Bft)
03.04.2010 22:42 15,5 C 9,9 C 0,0 UV-I 0,0 C 51 % 76 % 0 % 1005,6 hPa 0,0 l/m 12,0 km/h (2 Bft) 0 min 12,3 km/h (3 Bft)
03.04.2010 22:44 15,5 C 9,9 C 0,0 UV-I 0,0 C 51 % 76 % 0 % 1005,6 hPa 0,0 l/m 13,3 km/h (3 Bft) 0 min 14,7 km/h (3 Bft)
03.04.2010 22:46 15,5 C 9,9 C 0,0 UV-I 0,0 C 51 % 76 % 0 % 1005,6 hPa 0,0 l/m 14,5 km/h (3 Bft) 0 min 8,7 km/h (2 Bft)
03.04.2010 22:48 15,5 C 9,9 C 0,0 UV-I 0,0 C 51 % 76 % 0 % 1005,6 hPa 0,0 l/m 15,3 km/h (3 Bft) 0 min 12,5 km/h (3 Bft)
03.04.2010 22:50 15,5 C 9,9 C 0,0 UV-I 0,0 C 51 % 76 % 0 % 1005,6 hPa 0,0 l/m 14,9 km/h (3 Bft) 0 min 11,5 km/h (2 Bft)
03.04.2010 22:52 15,5 C 9,9 C 0,0 UV-I 0,0 C 51 % 76 % 0 % 1005,6 hPa 0,0 l/m 15,3 km/h (3 Bft) 0 min 9,9 km/h (2 Bft)
03.04.2010 22:54 15,3 C 9,9 C 0,0 UV-I 0,0 C 51 % 76 % 0 % 1005,6 hPa 0,0 l/m 14,5 km/h (3 Bft) 0 min 4,3 km/h (1 Bft)
03.04.2010 22:56 15,5 C 9,9 C 0,0 UV-I 0,0 C 51 % 76 % 0 % 1005,6 hPa 0,0 l/m 14,5 km/h (3 Bft) 0 min 9,1 km/h (2 Bft)
03.04.2010 22:58 15,5 C 9,9 C 0,0 UV-I 0,0 C 51 % 76 % 0 % 1005,6 hPa 0,0 l/m 14,5 km/h (3 Bft) 0 min 12,5 km/h (3 Bft)
03.04.2010 23:00 15,3 C 9,9 C 0,0 UV-I 0,0 C 51 % 76 % 0 % 1005,6 hPa 0,0 l/m 15,3 km/h (3 Bft) 0 min 10,1 km/h (2 Bft)
03.04.2010 23:02 15,3 C 9,9 C 0,0 UV-I 0,0 C 51 % 76 % 0 % 1005,6 hPa 0,0 l/m 15,3 km/h (3 Bft) 0 min 16,4 km/h (3 Bft)
03.04.2010 23:04 15,3 C 9,9 C 0,0 UV-I 0,0 C 51 % 76 % 0 % 1005,6 hPa 0,0 l/m 15,3 km/h (3 Bft) 0 min 10,1 km/h (2 Bft)
03.04.2010 23:06 15,5 C 9,9 C 0,0 UV-I 0,0 C 51 % 76 % 0 % 1005,6 hPa 0,0 l/m 16,1 km/h (3 Bft) 0 min 8,2 km/h (2 Bft)
03.04.2010 23:08 15,3 C 9,9 C 0,0 UV-I 0,0 C 51 % 76 % 0 % 1005,6 hPa 0,0 l/m 15,3 km/h (3 Bft) 0 min 13,0 km/h (3 Bft)
03.04.2010 23:10 15,5 C 9,9 C 0,0 UV-I 0,0 C 51 % 76 % 0 % 1005,6 hPa 0,0 l/m 14,5 km/h (3 Bft) 0 min 6,3 km/h (2 Bft)
03.04.2010 23:12 15,3 C 9,9 C 0,0 UV-I 0,0 C 51 % 76 % 0 % 1005,6 hPa 0,0 l/m 15,3 km/h (3 Bft) 0 min 14,0 km/h (3 Bft)
03.04.2010 23:14 15,3 C 9,9 C 0,0 UV-I 0,0 C 51 % 76 % 0 % 1005,6 hPa 0,0 l/m 15,7 km/h (3 Bft) 0 min 14,9 km/h (3 Bft)
03.04.2010 23:16 15,5 C 9,9 C 0,0 UV-I 0,0 C 51 % 76 % 0 % 1005,6 hPa 0,0 l/m 14,9 km/h (3 Bft) 0 min 7,7 km/h (2 Bft)
03.04.2010 23:18 15,3 C 9,9 C 0,0 UV-I 0,0 C 51 % 76 % 0 % 1005,6 hPa 0,0 l/m 16,5 km/h (3 Bft) 0 min 15,9 km/h (3 Bft)
03.04.2010 23:20 15,5 C 9,9 C 0,0 UV-I 0,0 C 51 % 76 % 0 % 1005,6 hPa 0,0 l/m 16,5 km/h (3 Bft) 0 min 19,0 km/h (3 Bft)
03.04.2010 23:22 15,5 C 9,9 C 0,0 UV-I 0,0 C 51 % 75 % 0 % 1005,6 hPa 0,0 l/m 16,9 km/h (3 Bft) 0 min 11,3 km/h (2 Bft)
03.04.2010 23:24 15,3 C 9,9 C 0,0 UV-I 0,0 C 51 % 75 % 0 % 1005,6 hPa 0,0 l/m 16,1 km/h (3 Bft) 0 min 19,0 km/h (3 Bft)
03.04.2010 23:26 15,3 C 9,9 C 0,0 UV-I 0,0 C 51 % 75 % 0 % 1005,6 hPa 0,0 l/m 15,7 km/h (3 Bft) 0 min 6,7 km/h (2 Bft)
03.04.2010 23:28 15,5 C 9,9 C 0,0 UV-I 0,0 C 51 % 75 % 0 % 1005,6 hPa 0,0 l/m 14,9 km/h (3 Bft) 0 min 9,9 km/h (2 Bft)
03.04.2010 23:30 15,3 C 9,9 C 0,0 UV-I 0,0 C 51 % 75 % 0 % 1005,6 hPa 0,0 l/m 15,3 km/h (3 Bft) 0 min 14,4 km/h (3 Bft)
03.04.2010 23:32 15,3 C 9,9 C 0,0 UV-I 0,0 C 51 % 75 % 0 % 1005,9 hPa 0,0 l/m 15,7 km/h (3 Bft) 0 min 12,0 km/h (2 Bft)
03.04.2010 23:34 15,5 C 9,9 C 0,0 UV-I 0,0 C 51 % 75 % 0 % 1005,9 hPa 0,0 l/m 14,5 km/h (3 Bft) 0 min 6,0 km/h (2 Bft)
03.04.2010 23:36 15,5 C 9,8 C 0,0 UV-I 0,0 C 51 % 75 % 0 % 1005,9 hPa 0,0 l/m 13,3 km/h (3 Bft) 0 min 7,2 km/h (2 Bft)
03.04.2010 23:38 15,5 C 9,7 C 0,0 UV-I 0,0 C 51 % 75 % 0 % 1005,9 hPa 0,0 l/m 13,3 km/h (3 Bft) 0 min 8,7 km/h (2 Bft)
03.04.2010 23:40 15,5 C 9,7 C 0,0 UV-I 0,0 C 51 % 75 % 0 % 1005,9 hPa 0,0 l/m 12,8 km/h (3 Bft) 0 min 15,2 km/h (3 Bft)
03.04.2010 23:42 15,3 C 9,7 C 0,0 UV-I 0,0 C 51 % 75 % 0 % 1005,9 hPa 0,0 l/m 11,6 km/h (2 Bft) 0 min 10,1 km/h (2 Bft)
03.04.2010 23:44 15,5 C 9,7 C 0,0 UV-I 0,0 C 51 % 75 % 0 % 1005,9 hPa 0,0 l/m 10,8 km/h (2 Bft) 0 min 4,3 km/h (1 Bft)
03.04.2010 23:46 15,3 C 9,7 C 0,0 UV-I 0,0 C 51 % 76 % 0 % 1005,9 hPa 0,0 l/m 11,6 km/h (2 Bft) 0 min 11,5 km/h (2 Bft)
03.04.2010 23:48 15,5 C 9,7 C 0,0 UV-I 0,0 C 51 % 76 % 0 % 1005,9 hPa 0,0 l/m 12,8 km/h (3 Bft) 0 min 14,2 km/h (3 Bft)
03.04.2010 23:50 15,3 C 9,7 C 0,0 UV-I 0,0 C 51 % 76 % 0 % 1005,9 hPa 0,0 l/m 12,8 km/h (3 Bft) 0 min 11,5 km/h (2 Bft)
03.04.2010 23:52 15,3 C 9,7 C 0,0 UV-I 0,0 C 51 % 76 % 0 % 1005,9 hPa 0,0 l/m 12,0 km/h (2 Bft) 0 min 7,2 km/h (2 Bft)
03.04.2010 23:54 15,3 C 9,7 C 0,0 UV-I 0,0 C 51 % 76 % 0 % 1005,9 hPa 0,0 l/m 11,6 km/h (2 Bft) 0 min 9,4 km/h (2 Bft)
03.04.2010 23:56 15,3 C 9,7 C 0,0 UV-I 0,0 C 51 % 76 % 0 % 1005,9 hPa 0,0 l/m 11,6 km/h (2 Bft) 0 min 13,7 km/h (3 Bft)
03.04.2010 23:58 15,3 C 9,7 C 0,0 UV-I 0,0 C 51 % 76 % 0 % 1005,9 hPa 0,0 l/m 11,2 km/h (2 Bft) 0 min 2,4 km/h (1 Bft)
_ Min-Zeit 07:38 07:36 00:00 00:00 00:00 18:08 00:00 18:32 - 05:58 - 03:34
Minimum _ 14,6 C 5,7 C 0,0 UV-I 0,0 C 47 % 66 % 0 % 1005,5 hPa - 0,0 km/h (0 Bft) - 0,0 km/h (0 Bft)
_ Max-Zeit 18:00 17:40 17:26 17:30 15:08 06:22 17:30 00:00 03:22 00:48 17:30 16:30
Maximum _ 16,4 C 12,5 C 5,0 UV-I 2,9 C 53 % 90 % 83 % 1008,2 hPa 0,3 l/m 20,5 km/h
O-SO (4 Bft)
2 min 32,2 km/h
S-SW (5 Bft)
Durchschnitt _ 15,2 C 9,0 C 0,5 UV-I 0,2 C 50 % 80 % 5 % 1007,0 hPa #2,4 l/m 10,4 km/h (2 Bft) #2 min. 8,5 km/h (2 Bft)
© 2012 W. Hausmann